Time,TemperatureF,DewpointF,PressureIn,WindDirection,WindDirectionDegrees,WindSpeedMPH,WindSpeedGustMPH,Humidity,HourlyPrecipIn,Conditions,Clouds,dailyrainin,SoftwareType,DateUTC
2013-04-11 00:00:00,71.3,32.6,29.95,East,79,0.0,0.0,24,0.00,CLR,,0.00,WeatherDisplay:10.37,2013-04-11 04:00:00,
2013-04-11 00:05:00,71.4,33.7,29.95,East,79,0.0,0.0,25,0.00,CLR,,0.00,WeatherDisplay:10.37,2013-04-11 04:05:00,
2013-04-11 00:10:00,70.9,34.3,29.95,East,79,0.0,0.0,26,0.00,CLR,,0.00,WeatherDisplay:10.37,2013-04-11 04:10:00,
2013-04-11 00:11:00,70.8,34.2,29.95,East,79,0.0,0.0,26,0.00,CLR,,0.00,WeatherDisplay:10.37,2013-04-11 04:11:00,
2013-04-11 00:15:00,70.3,34.7,29.95,East,79,0.0,0.0,27,0.00,CLR,,0.00,WeatherDisplay:10.37,2013-04-11 04:15:00,
2013-04-11 00:16:00,70.6,35.0,29.95,East,79,0.0,0.0,27,0.00,CLR,,0.00,WeatherDisplay:10.37,2013-04-11 04:16:00,
2013-04-11 00:17:00,70.5,34.9,29.94,East,79,0.0,0.0,27,0.00,CLR,,0.00,WeatherDisplay:10.37,2013-04-11 04:17:00,
2013-04-11 00:20:00,70.3,35.6,29.95,East,79,0.0,0.0,28,0.00,CLR,,0.00,WeatherDisplay:10.37,2013-04-11 04:20:00,
2013-04-11 00:21:00,70.0,35.4,29.95,East,79,0.0,0.0,28,0.00,CLR,,0.00,WeatherDisplay:10.37,2013-04-11 04:21:00,
2013-04-11 00:22:00,70.4,35.7,29.94,East,79,0.0,0.0,28,0.00,CLR,,0.00,WeatherDisplay:10.37,2013-04-11 04:22:00,
2013-04-11 00:26:00,69.9,36.2,29.95,East,79,0.0,0.0,29,0.00,CLR,,0.00,WeatherDisplay:10.37,2013-04-11 04:26:00,
2013-04-11 00:27:00,69.4,36.6,29.95,East,79,0.0,0.0,30,0.00,CLR,,0.00,WeatherDisplay:10.37,2013-04-11 04:27:00,
2013-04-11 00:30:00,69.5,35.8,29.94,East,79,0.2,0.0,29,0.00,CLR,,0.00,WeatherDisplay:10.37,2013-04-11 04:30:00,
2013-04-11 00:32:00,69.9,36.2,29.94,ESE,109,0.6,5.8,29,0.00,CLR,,0.00,WeatherDisplay:10.37,2013-04-11 04:32:00,
2013-04-11 00:36:00,69.6,35.9,29.94,ESE,109,0.0,0.0,29,0.00,CLR,,0.00,WeatherDisplay:10.37,2013-04-11 04:36:00,
2013-04-11 00:37:00,69.5,35.8,29.94,ESE,109,0.0,0.0,29,0.00,CLR,,0.00,WeatherDisplay:10.37,2013-04-11 04:37:00,
2013-04-11 00:42:00,69.3,37.3,29.95,NNE,18,0.0,0.0,31,0.00,CLR,,0.00,WeatherDisplay:10.37,2013-04-11 04:42:00,
2013-04-11 00:43:00,69.0,36.3,29.95,NNE,18,0.0,0.0,30,0.00,CLR,,0.00,WeatherDisplay:10.37,2013-04-11 04:43:00,
2013-04-11 00:47:00,69.4,35.7,29.95,NNE,18,0.0,0.0,29,0.00,CLR,,0.00,WeatherDisplay:10.37,2013-04-11 04:47:00,
2013-04-11 00:48:00,69.5,36.7,29.95,NNE,18,0.0,0.0,30,0.00,CLR,,0.00,WeatherDisplay:10.37,2013-04-11 04:48:00,
2013-04-11 00:52:00,70.2,35.5,29.95,NNE,18,0.0,0.0,28,0.00,CLR,,0.00,WeatherDisplay:10.37,2013-04-11 04:52:00,
2013-04-11 00:53:00,70.3,35.6,29.95,NNE,18,0.0,0.0,28,0.00,CLR,,0.00,WeatherDisplay:10.37,2013-04-11 04:53:00,
2013-04-11 00:57:00,70.1,36.3,29.95,East,82,0.2,3.0,29,0.00,CLR,,0.00,WeatherDisplay:10.37,2013-04-11 04:57:00,
2013-04-11 00:58:00,69.5,35.8,29.95,ENE,78,1.3,0.0,29,0.00,CLR,,0.00,WeatherDisplay:10.37,2013-04-11 04:58:00,
2013-04-11 01:02:00,68.4,38.9,29.95,ENE,78,0.0,0.0,34,0.00,CLR,,0.00,WeatherDisplay:10.37,2013-04-11 05:02:00,
2013-04-11 01:03:00,68.2,38.7,29.95,ENE,78,0.0,0.0,34,0.00,CLR,,0.00,WeatherDisplay:10.37,2013-04-11 05:03:00,
2013-04-11 01:07:00,68.1,39.4,29.95,ENE,78,0.0,0.0,35,0.00,CLR,,0.00,WeatherDisplay:10.37,2013-04-11 05:07:00,
2013-04-11 01:08:00,68.2,39.5,29.95,ENE,78,0.0,0.0,35,0.00,CLR,,0.00,WeatherDisplay:10.37,2013-04-11 05:08:00,
2013-04-11 01:13:00,67.9,39.2,29.95,ESE,121,1.1,4.6,35,0.00,CLR,,0.00,WeatherDisplay:10.37,2013-04-11 05:13:00,
2013-04-11 01:18:00,68.1,38.7,29.95,ESE,121,0.0,0.0,34,0.00,CLR,,0.00,WeatherDisplay:10.37,2013-04-11 05:18:00,
2013-04-11 01:23:00,68.7,37.6,29.95,East,95,3.9,5.8,32,0.00,CLR,,0.00,WeatherDisplay:10.37,2013-04-11 05:23:00,
2013-04-11 01:24:00,68.9,37.0,29.95,ENE,66,3.9,5.8,31,0.00,CLR,,0.00,WeatherDisplay:10.37,2013-04-11 05:24:00,
2013-04-11 01:28:00,69.4,36.6,29.95,ENE,66,0.0,0.0,30,0.00,CLR,,0.00,WeatherDisplay:10.37,2013-04-11 05:28:00,
2013-04-11 01:29:00,69.5,36.7,29.95,ENE,66,0.0,0.0,30,0.00,CLR,,0.00,WeatherDisplay:10.37,2013-04-11 05:29:00,
2013-04-11 01:33:00,68.4,38.2,29.95,ENE,62,0.0,0.0,33,0.00,CLR,,0.00,WeatherDisplay:10.37,2013-04-11 05:33:00,
2013-04-11 01:34:00,68.4,38.9,29.95,ENE,62,0.0,0.0,34,0.00,CLR,,0.00,WeatherDisplay:10.37,2013-04-11 05:34:00,
2013-04-11 01:35:00,68.3,38.1,29.95,ENE,62,0.0,0.0,33,0.00,CLR,,0.00,WeatherDisplay:10.37,2013-04-11 05:35:00,
2013-04-11 01:38:00,68.5,38.2,29.95,ENE,62,0.0,0.0,33,0.00,CLR,,0.00,WeatherDisplay:10.37,2013-04-11 05:38:00,
2013-04-11 01:39:00,68.4,38.2,29.95,ENE,62,0.0,0.0,33,0.00,CLR,,0.00,WeatherDisplay:10.37,2013-04-11 05:39:00,
2013-04-11 01:40:00,68.3,38.8,29.95,ENE,62,0.0,0.0,34,0.00,CLR,,0.00,WeatherDisplay:10.37,2013-04-11 05:40:00,
2013-04-11 01:43:00,68.2,39.5,29.95,ENE,62,0.0,0.0,35,0.00,CLR,,0.00,WeatherDisplay:10.37,2013-04-11 05:43:00,
2013-04-11 01:44:00,68.1,38.7,29.95,ENE,62,0.0,0.0,34,0.00,CLR,,0.00,WeatherDisplay:10.37,2013-04-11 05:44:00,
2013-04-11 01:45:00,68.1,38.7,29.95,ENE,62,0.0,0.0,34,0.00,CLR,,0.00,WeatherDisplay:10.37,2013-04-11 05:45:00,
2013-04-11 01:48:00,68.5,39.0,29.95,ENE,62,0.0,0.0,34,0.00,CLR,,0.00,WeatherDisplay:10.37,2013-04-11 05:48:00,
2013-04-11 01:49:00,68.3,38.8,29.95,ENE,62,0.0,0.0,34,0.00,CLR,,0.00,WeatherDisplay:10.37,2013-04-11 05:49:00,
2013-04-11 01:50:00,68.4,38.2,29.95,ENE,62,0.0,0.0,33,0.00,CLR,,0.00,WeatherDisplay:10.37,2013-04-11 05:50:00,
2013-04-11 01:54:00,67.0,39.9,29.95,ENE,62,0.0,0.0,37,0.00,CLR,,0.00,WeatherDisplay:10.37,2013-04-11 05:54:00,
2013-04-11 01:55:00,66.8,40.4,29.95,ENE,62,0.0,0.0,38,0.00,CLR,,0.00,WeatherDisplay:10.37,2013-04-11 05:55:00,
2013-04-11 01:59:00,66.2,41.2,29.94,ENE,62,0.0,0.0,40,0.00,CLR,,0.00,WeatherDisplay:10.37,2013-04-11 05:59:00,
2013-04-11 02:00:00,66.6,42.2,29.94,ENE,62,0.0,0.0,41,0.00,CLR,,0.00,WeatherDisplay:10.37,2013-04-11 06:00:00,
2013-04-11 02:04:00,65.8,42.1,29.94,ENE,71,0.0,0.0,42,0.00,CLR,,0.00,WeatherDisplay:10.37,2013-04-11 06:04:00,
2013-04-11 02:05:00,65.9,42.1,29.94,ENE,71,0.0,0.0,42,0.00,CLR,,0.00,WeatherDisplay:10.37,2013-04-11 06:05:00,
2013-04-11 02:09:00,66.2,41.2,29.94,East,92,0.8,3.5,40,0.00,CLR,,0.00,WeatherDisplay:10.37,2013-04-11 06:09:00,
2013-04-11 02:10:00,66.8,41.0,29.94,East,93,3.4,5.7,39,0.00,CLR,,0.00,WeatherDisplay:10.37,2013-04-11 06:10:00,
2013-04-11 02:11:00,66.8,41.0,29.94,East,86,4.7,4.7,39,0.00,CLR,,0.00,WeatherDisplay:10.37,2013-04-11 06:11:00,
2013-04-11 02:14:00,67.3,40.1,29.94,East,85,4.4,4.8,37,0.00,CLR,,0.00,WeatherDisplay:10.37,2013-04-11 06:14:00,
2013-04-11 02:15:00,67.5,40.3,29.94,East,79,4.4,4.6,37,0.00,CLR,,0.00,WeatherDisplay:10.37,2013-04-11 06:15:00,
2013-04-11 02:17:00,67.7,40.5,29.93,East,88,3.5,4.6,37,0.00,CLR,,0.00,WeatherDisplay:10.37,2013-04-11 06:17:00,
2013-04-11 02:19:00,67.8,40.6,29.93,ESE,112,5.2,5.2,37,0.00,CLR,,0.00,WeatherDisplay:10.37,2013-04-11 06:19:00,
2013-04-11 02:20:00,67.2,40.0,29.93,ESE,110,3.9,5.8,37,0.00,CLR,,0.00,WeatherDisplay:10.37,2013-04-11 06:20:00,
2013-04-11 02:22:00,66.9,40.5,29.93,East,88,2.9,4.6,38,0.00,CLR,,0.00,WeatherDisplay:10.37,2013-04-11 06:22:00,
2013-04-11 02:24:00,66.3,41.2,29.93,East,88,0.0,0.0,40,0.00,CLR,,0.00,WeatherDisplay:10.37,2013-04-11 06:24:00,
2013-04-11 02:26:00,66.0,42.2,29.93,East,88,0.0,0.0,42,0.00,CLR,,0.00,WeatherDisplay:10.37,2013-04-11 06:26:00,
2013-04-11 02:27:00,66.4,42.6,29.93,East,88,0.0,0.0,42,0.00,CLR,,0.00,WeatherDisplay:10.37,2013-04-11 06:27:00,
2013-04-11 02:29:00,66.2,42.4,29.93,East,88,0.0,0.0,42,0.00,CLR,,0.00,WeatherDisplay:10.37,2013-04-11 06:29:00,
2013-04-11 02:31:00,65.6,41.9,29.93,East,88,0.0,0.0,42,0.00,CLR,,0.00,WeatherDisplay:10.37,2013-04-11 06:31:00,
2013-04-11 02:32:00,65.8,42.7,29.92,East,88,0.0,0.0,43,0.00,CLR,,0.00,WeatherDisplay:10.37,2013-04-11 06:32:00,
2013-04-11 02:34:00,65.3,42.8,29.93,East,88,0.0,0.0,44,0.00,CLR,,0.00,WeatherDisplay:10.37,2013-04-11 06:34:00,
2013-04-11 02:36:00,65.7,43.2,29.92,East,88,0.0,0.0,44,0.00,CLR,,0.00,WeatherDisplay:10.37,2013-04-11 06:36:00,
2013-04-11 02:37:00,65.7,43.2,29.92,East,88,0.0,0.0,44,0.00,CLR,,0.00,WeatherDisplay:10.37,2013-04-11 06:37:00,
2013-04-11 02:38:00,65.6,43.1,29.92,East,88,0.0,0.0,44,0.00,CLR,,0.00,WeatherDisplay:10.37,2013-04-11 06:38:00,
2013-04-11 02:39:00,66.2,43.6,29.92,East,88,0.0,0.0,44,0.00,CLR,,0.00,WeatherDisplay:10.37,2013-04-11 06:39:00,
2013-04-11 02:42:00,66.0,43.5,29.92,East,88,0.0,0.0,44,0.00,CLR,,0.00,WeatherDisplay:10.37,2013-04-11 06:42:00,
2013-04-11 02:44:00,66.3,43.1,29.92,East,88,0.0,0.0,43,0.00,CLR,,0.00,WeatherDisplay:10.37,2013-04-11 06:44:00,
2013-04-11 02:47:00,66.2,42.4,29.93,East,88,0.0,0.0,42,0.00,CLR,,0.00,WeatherDisplay:10.37,2013-04-11 06:47:00,
2013-04-11 02:49:00,66.4,42.0,29.92,East,88,0.0,0.0,41,0.00,CLR,,0.00,WeatherDisplay:10.37,2013-04-11 06:49:00,
2013-04-11 02:52:00,66.8,41.7,29.92,East,88,0.0,0.0,40,0.00,CLR,,0.00,WeatherDisplay:10.37,2013-04-11 06:52:00,
2013-04-11 02:54:00,67.1,41.3,29.92,East,88,0.0,0.0,39,0.00,CLR,,0.00,WeatherDisplay:10.37,2013-04-11 06:54:00,
2013-04-11 02:55:00,67.0,41.2,29.92,East,88,0.0,0.0,39,0.00,CLR,,0.00,WeatherDisplay:10.37,2013-04-11 06:55:00,
2013-04-11 02:58:00,67.3,40.8,29.92,ESE,104,0.0,0.0,38,0.00,CLR,,0.00,WeatherDisplay:10.37,2013-04-11 06:58:00,
2013-04-11 02:59:00,67.1,41.3,29.92,ESE,104,0.0,0.0,39,0.00,CLR,,0.00,WeatherDisplay:10.37,2013-04-11 06:59:00,
2013-04-11 03:00:00,66.8,41.0,29.92,ESE,104,0.0,0.0,39,0.00,CLR,,0.00,WeatherDisplay:10.37,2013-04-11 07:00:00,
2013-04-11 03:03:00,66.5,41.4,29.92,ESE,104,0.0,0.0,40,0.00,CLR,,0.00,WeatherDisplay:10.37,2013-04-11 07:03:00,
2013-04-11 03:04:00,65.9,41.5,29.92,ESE,104,0.0,0.0,41,0.00,CLR,,0.00,WeatherDisplay:10.37,2013-04-11 07:04:00,
2013-04-11 03:05:00,66.4,42.6,29.92,ESE,104,0.0,0.0,42,0.00,CLR,,0.00,WeatherDisplay:10.37,2013-04-11 07:05:00,
2013-04-11 03:08:00,66.2,42.4,29.92,ESE,104,0.0,0.0,42,0.00,CLR,,0.00,WeatherDisplay:10.37,2013-04-11 07:08:00,
2013-04-11 03:09:00,66.3,42.5,29.92,ESE,104,0.0,0.0,42,0.00,CLR,,0.00,WeatherDisplay:10.37,2013-04-11 07:09:00,
2013-04-11 03:11:00,67.0,41.9,29.92,ESE,104,0.0,0.0,40,0.00,CLR,,0.00,WeatherDisplay:10.37,2013-04-11 07:11:00,
2013-04-11 03:13:00,66.9,41.8,29.92,ESE,104,0.0,0.0,40,0.00,CLR,,0.00,WeatherDisplay:10.37,2013-04-11 07:13:00,
2013-04-11 03:14:00,67.0,41.9,29.92,ESE,104,0.0,0.0,40,0.00,CLR,,0.00,WeatherDisplay:10.37,2013-04-11 07:14:00,
2013-04-11 03:16:00,66.4,41.3,29.92,ESE,104,0.0,0.0,40,0.00,CLR,,0.00,WeatherDisplay:10.37,2013-04-11 07:16:00,
2013-04-11 03:18:00,65.7,42.0,29.92,ESE,104,0.0,0.0,42,0.00,CLR,,0.00,WeatherDisplay:10.37,2013-04-11 07:18:00,
2013-04-11 03:19:00,66.0,42.9,29.92,ESE,104,0.0,0.0,43,0.00,CLR,,0.00,WeatherDisplay:10.37,2013-04-11 07:19:00,
2013-04-11 03:21:00,66.4,42.6,29.91,ESE,113,2.5,6.9,42,0.00,CLR,,0.00,WeatherDisplay:10.37,2013-04-11 07:21:00,
2013-04-11 03:23:00,66.4,42.0,29.92,ENE,78,2.1,4.6,41,0.00,CLR,,0.00,WeatherDisplay:10.37,2013-04-11 07:23:00,
2013-04-11 03:24:00,66.4,42.0,29.92,ENE,78,1.4,3.5,41,0.00,CLR,,0.00,WeatherDisplay:10.37,2013-04-11 07:24:00,
2013-04-11 03:25:00,66.7,41.6,29.92,ENE,78,0.0,0.0,40,0.00,CLR,,0.00,WeatherDisplay:10.37,2013-04-11 07:25:00,
2013-04-11 03:26:00,67.1,42.0,29.92,ENE,78,0.0,0.0,40,0.00,CLR,,0.00,WeatherDisplay:10.37,2013-04-11 07:26:00,
2013-04-11 03:28:00,66.9,41.8,29.92,ENE,78,0.0,0.0,40,0.00,CLR,,0.00,WeatherDisplay:10.37,2013-04-11 07:28:00,
2013-04-11 03:29:00,66.4,41.3,29.92,East,86,1.4,3.5,40,0.00,CLR,,0.00,WeatherDisplay:10.37,2013-04-11 07:29:00,
2013-04-11 03:31:00,66.4,42.0,29.92,ENE,62,0.0,4.6,41,0.00,CLR,,0.00,WeatherDisplay:10.37,2013-04-11 07:31:00,
2013-04-11 03:33:00,66.4,41.3,29.92,ENE,62,0.0,0.0,40,0.00,CLR,,0.00,WeatherDisplay:10.37,2013-04-11 07:33:00,
2013-04-11 03:34:00,66.7,40.9,29.92,ENE,62,0.0,0.0,39,0.00,CLR,,0.00,WeatherDisplay:10.37,2013-04-11 07:34:00,
2013-04-11 03:35:00,66.8,41.0,29.92,ENE,62,0.0,0.0,39,0.00,CLR,,0.00,WeatherDisplay:10.37,2013-04-11 07:35:00,
2013-04-11 03:37:00,66.9,41.1,29.92,ENE,62,0.0,0.0,39,0.00,CLR,,0.00,WeatherDisplay:10.37,2013-04-11 07:37:00,
2013-04-11 03:38:00,67.0,41.9,29.92,ENE,62,0.0,0.0,40,0.00,CLR,,0.00,WeatherDisplay:10.37,2013-04-11 07:38:00,
2013-04-11 03:39:00,67.0,41.9,29.92,ENE,62,0.0,0.0,40,0.00,CLR,,0.00,WeatherDisplay:10.37,2013-04-11 07:39:00,
2013-04-11 03:40:00,66.8,41.7,29.92,ENE,62,0.0,0.0,40,0.00,CLR,,0.00,WeatherDisplay:10.37,2013-04-11 07:40:00,
2013-04-11 03:42:00,67.2,42.0,29.92,ENE,62,0.0,0.0,40,0.00,CLR,,0.00,WeatherDisplay:10.37,2013-04-11 07:42:00,
2013-04-11 03:44:00,67.2,42.0,29.92,ENE,62,0.0,0.0,40,0.00,CLR,,0.00,WeatherDisplay:10.37,2013-04-11 07:44:00,
2013-04-11 03:46:00,67.4,41.6,29.92,ENE,62,0.0,0.0,39,0.00,CLR,,0.00,WeatherDisplay:10.37,2013-04-11 07:46:00,
2013-04-11 03:47:00,66.4,40.0,29.92,ENE,62,0.0,0.0,38,0.00,CLR,,0.00,WeatherDisplay:10.37,2013-04-11 07:47:00,
2013-04-11 03:49:00,66.4,42.0,29.92,ENE,62,0.0,0.0,41,0.00,CLR,,0.00,WeatherDisplay:10.37,2013-04-11 07:49:00,
2013-04-11 03:51:00,66.8,41.7,29.92,ENE,62,0.0,0.0,40,0.00,CLR,,0.00,WeatherDisplay:10.37,2013-04-11 07:51:00,
2013-04-11 03:52:00,66.5,41.4,29.92,ESE,116,3.8,5.3,40,0.00,CLR,,0.00,WeatherDisplay:10.37,2013-04-11 07:52:00,
2013-04-11 03:54:00,66.5,41.4,29.92,East,86,0.9,4.6,40,0.00,CLR,,0.00,WeatherDisplay:10.37,2013-04-11 07:54:00,
2013-04-11 03:57:00,66.2,41.2,29.91,East,86,0.0,0.0,40,0.00,CLR,,0.00,WeatherDisplay:10.37,2013-04-11 07:57:00,
2013-04-11 03:58:00,66.3,42.5,29.91,East,86,0.0,0.0,42,0.00,CLR,,0.00,WeatherDisplay:10.37,2013-04-11 07:58:00,
2013-04-11 03:59:00,65.6,43.7,29.92,East,86,0.0,0.0,45,0.00,CLR,,0.00,WeatherDisplay:10.37,2013-04-11 07:59:00,
2013-04-11 04:00:00,65.4,43.5,29.92,East,86,0.0,0.0,45,0.00,CLR,,0.00,WeatherDisplay:10.37,2013-04-11 08:00:00,
2013-04-11 04:02:00,64.9,44.2,29.91,East,86,0.0,0.0,47,0.00,CLR,,0.00,WeatherDisplay:10.37,2013-04-11 08:02:00,
2013-04-11 04:03:00,64.4,44.8,29.92,East,86,0.0,0.0,49,0.00,CLR,,0.00,WeatherDisplay:10.37,2013-04-11 08:03:00,
2013-04-11 04:04:00,64.1,44.5,29.91,East,86,0.0,0.0,49,0.00,CLR,,0.00,WeatherDisplay:10.37,2013-04-11 08:04:00,
2013-04-11 04:05:00,64.6,45.5,29.91,East,86,0.0,0.0,50,0.00,CLR,,0.00,WeatherDisplay:10.37,2013-04-11 08:05:00,
2013-04-11 04:07:00,64.6,45.5,29.92,East,86,0.0,0.0,50,0.00,CLR,,0.00,WeatherDisplay:10.37,2013-04-11 08:07:00,
2013-04-11 04:08:00,64.8,45.2,29.91,East,86,0.0,0.0,49,0.00,CLR,,0.00,WeatherDisplay:10.37,2013-04-11 08:08:00,
2013-04-11 04:10:00,64.7,45.1,29.91,East,86,0.0,0.0,49,0.00,CLR,,0.00,WeatherDisplay:10.37,2013-04-11 08:10:00,
2013-04-11 04:12:00,64.3,44.7,29.91,East,85,3.3,4.6,49,0.00,CLR,,0.00,WeatherDisplay:10.37,2013-04-11 08:12:00,
2013-04-11 04:13:00,64.2,44.6,29.91,ENE,71,1.2,4.6,49,0.00,CLR,,0.00,WeatherDisplay:10.37,2013-04-11 08:13:00,
2013-04-11 04:15:00,64.4,45.3,29.91,ENE,71,0.0,0.0,50,0.00,CLR,,0.00,WeatherDisplay:10.37,2013-04-11 08:15:00,
2013-04-11 04:17:00,64.1,45.6,29.91,ENE,71,0.0,0.0,51,0.00,CLR,,0.00,WeatherDisplay:10.37,2013-04-11 08:17:00,
2013-04-11 04:18:00,64.3,45.8,29.91,ENE,71,0.0,0.0,51,0.00,CLR,,0.00,WeatherDisplay:10.37,2013-04-11 08:18:00,
2013-04-11 04:20:00,64.0,46.0,29.91,ENE,71,0.0,0.0,52,0.00,CLR,,0.00,WeatherDisplay:10.37,2013-04-11 08:20:00,
2013-04-11 04:22:00,64.4,46.4,29.91,ENE,71,0.0,0.0,52,0.00,CLR,,0.00,WeatherDisplay:10.37,2013-04-11 08:22:00,
2013-04-11 04:23:00,64.2,46.2,29.91,ENE,71,0.0,0.0,52,0.00,CLR,,0.00,WeatherDisplay:10.37,2013-04-11 08:23:00,
2013-04-11 04:25:00,64.1,46.1,29.91,ENE,71,0.0,0.0,52,0.00,CLR,,0.00,WeatherDisplay:10.37,2013-04-11 08:25:00,
2013-04-11 04:27:00,63.8,45.3,29.91,ENE,71,0.0,0.0,51,0.00,CLR,,0.00,WeatherDisplay:10.37,2013-04-11 08:27:00,
2013-04-11 04:28:00,64.3,44.7,29.91,ENE,71,0.0,0.0,49,0.00,CLR,,0.00,WeatherDisplay:10.37,2013-04-11 08:28:00,
2013-04-11 04:30:00,64.5,45.4,29.91,ENE,71,0.0,0.0,50,0.00,CLR,,0.00,WeatherDisplay:10.37,2013-04-11 08:30:00,
2013-04-11 04:32:00,64.7,45.6,29.91,ENE,71,0.0,0.0,50,0.00,CLR,,0.00,WeatherDisplay:10.37,2013-04-11 08:32:00,
2013-04-11 04:33:00,65.0,45.9,29.91,ENE,71,0.0,0.0,50,0.00,CLR,,0.00,WeatherDisplay:10.37,2013-04-11 08:33:00,
2013-04-11 04:35:00,64.5,44.9,29.91,ENE,71,0.0,0.0,49,0.00,CLR,,0.00,WeatherDisplay:10.37,2013-04-11 08:35:00,
2013-04-11 04:36:00,64.7,44.5,29.91,ENE,71,0.0,0.0,48,0.00,CLR,,0.00,WeatherDisplay:10.37,2013-04-11 08:36:00,
2013-04-11 04:38:00,64.5,44.4,29.91,ENE,71,0.0,0.0,48,0.00,CLR,,0.00,WeatherDisplay:10.37,2013-04-11 08:38:00,
2013-04-11 04:40:00,64.9,45.3,29.91,ENE,71,0.0,0.0,49,0.00,CLR,,0.00,WeatherDisplay:10.37,2013-04-11 08:40:00,
2013-04-11 04:41:00,65.2,45.0,29.92,ENE,71,0.0,0.0,48,0.00,CLR,,0.00,WeatherDisplay:10.37,2013-04-11 08:41:00,
2013-04-11 04:44:00,65.2,44.5,29.92,ENE,71,0.0,0.0,47,0.00,CLR,,0.00,WeatherDisplay:10.37,2013-04-11 08:44:00,
2013-04-11 04:46:00,65.8,44.4,29.92,ENE,71,0.0,0.0,46,0.00,CLR,,0.00,WeatherDisplay:10.37,2013-04-11 08:46:00,
2013-04-11 04:49:00,65.6,43.7,29.92,North,3,0.0,0.0,45,0.00,CLR,,0.00,WeatherDisplay:10.37,2013-04-11 08:49:00,
2013-04-11 04:52:00,65.1,43.8,29.92,North,3,0.0,0.0,46,0.00,CLR,,0.00,WeatherDisplay:10.37,2013-04-11 08:52:00,
2013-04-11 04:54:00,65.3,44.5,29.92,North,3,0.0,0.0,47,0.00,CLR,,0.00,WeatherDisplay:10.37,2013-04-11 08:54:00,
2013-04-11 04:55:00,65.2,44.5,29.92,North,3,0.0,0.0,47,0.00,CLR,,0.00,WeatherDisplay:10.37,2013-04-11 08:55:00,
2013-04-11 04:57:00,64.8,43.5,29.92,North,3,0.0,0.0,46,0.00,CLR,,0.00,WeatherDisplay:10.37,2013-04-11 08:57:00,
2013-04-11 04:59:00,64.9,45.3,29.92,North,3,0.0,0.0,49,0.00,CLR,,0.00,WeatherDisplay:10.37,2013-04-11 08:59:00,
2013-04-11 05:00:00,64.0,45.0,29.92,North,3,0.0,0.0,50,0.00,CLR,,0.00,WeatherDisplay:10.37,2013-04-11 09:00:00,
2013-04-11 05:02:00,64.3,45.8,29.92,North,3,0.0,0.0,51,0.00,CLR,,0.00,WeatherDisplay:10.37,2013-04-11 09:02:00,
2013-04-11 05:04:00,63.8,46.3,29.92,ENE,66,0.9,0.0,53,0.00,CLR,,0.00,WeatherDisplay:10.37,2013-04-11 09:04:00,
2013-04-11 05:05:00,63.0,46.1,29.92,ENE,66,0.0,4.6,54,0.00,CLR,,0.00,WeatherDisplay:10.37,2013-04-11 09:05:00,
2013-04-11 05:07:00,63.3,47.8,29.92,East,89,2.4,4.5,57,0.00,CLR,,0.00,WeatherDisplay:10.37,2013-04-11 09:07:00,
2013-04-11 05:09:00,63.3,47.3,29.92,ESE,120,3.5,5.2,56,0.00,CLR,,0.00,WeatherDisplay:10.37,2013-04-11 09:09:00,
2013-04-11 05:10:00,63.5,48.0,29.92,East,85,4.5,4.8,57,0.00,CLR,,0.00,WeatherDisplay:10.37,2013-04-11 09:10:00,
2013-04-11 05:12:00,63.9,47.4,29.92,ENE,75,0.0,0.0,55,0.00,CLR,,0.00,WeatherDisplay:10.37,2013-04-11 09:12:00,
2013-04-11 05:14:00,64.4,46.9,29.92,ENE,75,0.0,0.0,53,0.00,CLR,,0.00,WeatherDisplay:10.37,2013-04-11 09:14:00,
2013-04-11 05:15:00,64.2,46.7,29.92,ENE,75,0.0,0.0,53,0.00,CLR,,0.00,WeatherDisplay:10.37,2013-04-11 09:15:00,
2013-04-11 05:18:00,64.0,45.5,29.92,ENE,75,0.0,0.0,51,0.00,CLR,,0.00,WeatherDisplay:10.37,2013-04-11 09:18:00,
2013-04-11 05:20:00,64.2,45.2,29.93,ENE,75,0.0,0.0,50,0.00,CLR,,0.00,WeatherDisplay:10.37,2013-04-11 09:20:00,
2013-04-11 05:21:00,64.0,45.0,29.93,ENE,75,0.0,0.0,50,0.00,CLR,,0.00,WeatherDisplay:10.37,2013-04-11 09:21:00,
2013-04-11 05:23:00,64.6,46.1,29.93,ENE,75,0.0,0.0,51,0.00,CLR,,0.00,WeatherDisplay:10.37,2013-04-11 09:23:00,
2013-04-11 05:24:00,64.8,45.7,29.92,ENE,75,0.0,0.0,50,0.00,CLR,,0.00,WeatherDisplay:10.37,2013-04-11 09:24:00,
2013-04-11 05:25:00,64.6,44.5,29.93,SE,126,4.4,4.6,48,0.00,CLR,,0.00,WeatherDisplay:10.37,2013-04-11 09:25:00,
2013-04-11 05:27:00,64.8,45.2,29.92,East,89,4.2,5.2,49,0.00,CLR,,0.00,WeatherDisplay:10.37,2013-04-11 09:27:00,
2013-04-11 05:28:00,64.5,44.4,29.92,East,92,5.2,5.8,48,0.00,CLR,,0.00,WeatherDisplay:10.37,2013-04-11 09:28:00,
2013-04-11 05:29:00,64.6,45.0,29.92,East,92,5.1,5.8,49,0.00,CLR,,0.00,WeatherDisplay:10.37,2013-04-11 09:29:00,
2013-04-11 05:30:00,64.6,45.0,29.92,East,82,4.7,5.8,49,0.00,CLR,,0.00,WeatherDisplay:10.37,2013-04-11 09:30:00,
2013-04-11 05:32:00,64.3,45.3,29.92,ENE,66,2.5,5.8,50,0.00,CLR,,0.00,WeatherDisplay:10.37,2013-04-11 09:32:00,
2013-04-11 05:33:00,63.3,46.4,29.92,ENE,78,0.0,0.0,54,0.00,CLR,,0.00,WeatherDisplay:10.37,2013-04-11 09:33:00,
2013-04-11 05:34:00,63.5,47.0,29.92,ENE,78,0.0,0.0,55,0.00,CLR,,0.00,WeatherDisplay:10.37,2013-04-11 09:34:00,
2013-04-11 05:35:00,63.3,47.3,29.92,ENE,78,0.0,0.0,56,0.00,CLR,,0.00,WeatherDisplay:10.37,2013-04-11 09:35:00,
2013-04-11 05:37:00,63.0,47.5,29.92,ENE,78,0.0,0.0,57,0.00,CLR,,0.00,WeatherDisplay:10.37,2013-04-11 09:37:00,
2013-04-11 05:38:00,62.6,48.5,29.92,East,92,0.7,3.0,60,0.00,CLR,,0.00,WeatherDisplay:10.37,2013-04-11 09:38:00,
2013-04-11 05:39:00,62.7,48.2,29.92,East,90,3.1,4.8,59,0.00,CLR,,0.00,WeatherDisplay:10.37,2013-04-11 09:39:00,
2013-04-11 05:41:00,62.7,48.6,29.92,ENE,78,1.0,3.5,60,0.00,CLR,,0.00,WeatherDisplay:10.37,2013-04-11 09:41:00,
2013-04-11 05:42:00,62.9,48.8,29.92,ENE,78,0.2,3.5,60,0.00,CLR,,0.00,WeatherDisplay:10.37,2013-04-11 09:42:00,
2013-04-11 05:44:00,62.7,48.6,29.92,ENE,78,0.0,0.0,60,0.00,CLR,,0.00,WeatherDisplay:10.37,2013-04-11 09:44:00,
2013-04-11 05:47:00,63.3,48.7,29.92,ENE,78,0.0,0.0,59,0.00,CLR,,0.00,WeatherDisplay:10.37,2013-04-11 09:47:00,
2013-04-11 05:49:00,63.5,48.5,29.92,ENE,78,0.0,0.0,58,0.00,CLR,,0.00,WeatherDisplay:10.37,2013-04-11 09:49:00,
2013-04-11 05:52:00,63.1,48.1,29.92,ENE,78,0.0,0.0,58,0.00,CLR,,0.00,WeatherDisplay:10.37,2013-04-11 09:52:00,
2013-04-11 05:54:00,63.3,48.3,29.92,ENE,78,0.0,0.0,58,0.00,CLR,,0.00,WeatherDisplay:10.37,2013-04-11 09:54:00,
2013-04-11 05:55:00,63.4,48.4,29.92,ENE,78,0.0,0.0,58,0.00,CLR,,0.00,WeatherDisplay:10.37,2013-04-11 09:55:00,
2013-04-11 05:57:00,63.7,47.7,29.92,ENE,78,0.0,0.0,56,0.00,CLR,,0.00,WeatherDisplay:10.37,2013-04-11 09:57:00,
2013-04-11 05:59:00,63.9,47.4,29.92,ENE,78,0.0,0.0,55,0.00,CLR,,0.00,WeatherDisplay:10.37,2013-04-11 09:59:00,
2013-04-11 06:00:00,63.7,47.2,29.92,ENE,78,0.0,0.0,55,0.00,CLR,,0.00,WeatherDisplay:10.37,2013-04-11 10:00:00,
2013-04-11 06:02:00,64.1,47.6,29.92,ENE,78,0.0,0.0,55,0.00,CLR,,0.00,WeatherDisplay:10.37,2013-04-11 10:02:00,
2013-04-11 06:04:00,64.1,47.1,29.92,East,86,4.6,5.0,54,0.00,CLR,,0.00,WeatherDisplay:10.37,2013-04-11 10:04:00,
2013-04-11 06:05:00,64.0,47.0,29.92,ENE,73,4.7,4.7,54,0.00,CLR,,0.00,WeatherDisplay:10.37,2013-04-11 10:05:00,
2013-04-11 06:07:00,64.0,46.0,29.92,East,92,4.8,5.8,52,0.00,CLR,,0.00,WeatherDisplay:10.37,2013-04-11 10:07:00,
2013-04-11 06:08:00,64.2,46.7,29.92,ESE,102,3.7,5.8,53,0.00,CLR,,0.00,WeatherDisplay:10.37,2013-04-11 10:08:00,
2013-04-11 06:09:00,64.1,47.1,29.92,East,97,3.0,4.4,54,0.00,CLR,,0.00,WeatherDisplay:10.37,2013-04-11 10:09:00,
2013-04-11 06:10:00,63.8,46.3,29.92,NNE,18,2.3,4.6,53,0.00,CLR,,0.00,WeatherDisplay:10.37,2013-04-11 10:10:00,
2013-04-11 06:12:00,63.3,46.9,29.92,NNE,18,0.0,0.0,55,0.00,CLR,,0.00,WeatherDisplay:10.37,2013-04-11 10:12:00,
2013-04-11 06:14:00,63.5,47.0,29.92,NNE,18,0.0,0.0,55,0.00,CLR,,0.00,WeatherDisplay:10.37,2013-04-11 10:14:00,
2013-04-11 06:16:00,63.3,46.9,29.92,NNE,18,0.0,0.0,55,0.00,CLR,,0.00,WeatherDisplay:10.37,2013-04-11 10:16:00,
2013-04-11 06:18:00,63.3,47.8,29.92,ESE,109,3.7,4.6,57,0.00,CLR,,0.00,WeatherDisplay:10.37,2013-04-11 10:18:00,
2013-04-11 06:19:00,63.4,47.9,29.92,East,92,3.6,4.8,57,0.00,CLR,,0.00,WeatherDisplay:10.37,2013-04-11 10:19:00,
2013-04-11 06:23:00,63.5,47.5,29.92,East,93,4.0,5.0,56,0.00,CLR,,0.00,WeatherDisplay:10.37,2013-04-11 10:23:00,
2013-04-11 06:24:00,62.9,47.9,29.92,East,88,4.6,5.8,58,0.00,CLR,,0.00,WeatherDisplay:10.37,2013-04-11 10:24:00,
2013-04-11 06:28:00,62.4,48.3,29.91,East,100,4.6,5.8,60,0.00,CLR,,0.00,WeatherDisplay:10.37,2013-04-11 10:28:00,
2013-04-11 06:29:00,61.7,48.5,29.92,East,99,2.9,5.8,62,0.00,CLR,,0.00,WeatherDisplay:10.37,2013-04-11 10:29:00,
2013-04-11 06:30:00,62.3,49.1,29.92,East,89,3.8,5.1,62,0.00,CLR,,0.00,WeatherDisplay:10.37,2013-04-11 10:30:00,
2013-04-11 06:33:00,61.5,48.8,29.92,ESE,102,5.2,5.8,63,0.00,CLR,,0.00,WeatherDisplay:10.37,2013-04-11 10:33:00,
2013-04-11 06:34:00,61.7,49.4,29.92,ESE,112,4.3,5.8,64,0.00,CLR,,0.00,WeatherDisplay:10.37,2013-04-11 10:34:00,
2013-04-11 06:35:00,61.4,49.1,29.92,ESE,102,4.2,5.6,64,0.00,CLR,,0.00,WeatherDisplay:10.37,2013-04-11 10:35:00,
2013-04-11 06:38:00,62.2,49.9,29.92,East,99,5.3,5.8,64,0.00,CLR,,0.00,WeatherDisplay:10.37,2013-04-11 10:38:00,
2013-04-11 06:39:00,61.7,49.4,29.92,East,90,4.4,5.8,64,0.00,CLR,,0.00,WeatherDisplay:10.37,2013-04-11 10:39:00,
2013-04-11 06:40:00,62.6,50.2,29.92,ENE,69,3.2,5.8,64,0.00,CLR,,0.00,WeatherDisplay:10.37,2013-04-11 10:40:00,
2013-04-11 06:43:00,62.5,49.3,29.92,ENE,58,0.0,0.0,62,0.00,CLR,,0.00,WeatherDisplay:10.37,2013-04-11 10:43:00,
2013-04-11 06:44:00,62.5,49.3,29.92,ENE,58,0.0,0.0,62,0.00,CLR,,0.00,WeatherDisplay:10.37,2013-04-11 10:44:00,
2013-04-11 06:45:00,62.1,48.9,29.92,East,93,2.6,3.4,62,0.00,CLR,,0.00,WeatherDisplay:10.37,2013-04-11 10:45:00,
2013-04-11 06:48:00,62.6,49.4,29.92,East,90,3.1,4.6,62,0.00,CLR,,0.00,WeatherDisplay:10.37,2013-04-11 10:48:00,
2013-04-11 06:49:00,62.4,49.2,29.92,East,82,0.8,3.5,62,0.00,CLR,,0.00,WeatherDisplay:10.37,2013-04-11 10:49:00,
2013-04-11 06:50:00,62.6,49.4,29.92,East,82,0.4,3.5,62,0.00,CLR,,0.00,WeatherDisplay:10.37,2013-04-11 10:50:00,
2013-04-11 06:53:00,63.2,49.5,29.92,ENE,75,4.4,5.8,61,0.00,CLR,,0.00,WeatherDisplay:10.37,2013-04-11 10:53:00,
2013-04-11 06:54:00,63.1,49.4,29.92,East,80,4.6,5.8,61,0.00,CLR,,0.00,WeatherDisplay:10.37,2013-04-11 10:54:00,
2013-04-11 06:55:00,63.0,49.3,29.92,ENE,78,0.1,3.5,61,0.00,CLR,,0.00,WeatherDisplay:10.37,2013-04-11 10:55:00,
2013-04-11 06:58:00,63.2,49.1,29.93,ENE,78,0.0,0.0,60,0.00,CLR,,0.00,WeatherDisplay:10.37,2013-04-11 10:58:00,
2013-04-11 06:59:00,62.4,48.3,29.93,ENE,78,0.0,0.0,60,0.00,CLR,,0.00,WeatherDisplay:10.37,2013-04-11 10:59:00,
2013-04-11 07:00:00,63.3,49.2,29.93,ENE,78,0.0,0.0,60,0.00,CLR,,0.00,WeatherDisplay:10.37,2013-04-11 11:00:00,
2013-04-11 07:04:00,63.4,49.7,29.93,ENE,78,0.0,0.0,61,0.00,CLR,,0.00,WeatherDisplay:10.37,2013-04-11 11:04:00,
2013-04-11 07:05:00,63.3,49.2,29.93,ENE,78,0.0,0.0,60,0.00,CLR,,0.00,WeatherDisplay:10.37,2013-04-11 11:05:00,
2013-04-11 07:09:00,63.2,47.7,29.93,ENE,78,0.0,0.0,57,0.00,CLR,,0.00,WeatherDisplay:10.37,2013-04-11 11:09:00,
2013-04-11 07:10:00,63.5,48.0,29.93,ENE,78,0.0,0.0,57,0.00,CLR,,0.00,WeatherDisplay:10.37,2013-04-11 11:10:00,
2013-04-11 07:14:00,63.4,48.4,29.93,ENE,58,0.7,4.6,58,0.00,CLR,,0.00,WeatherDisplay:10.37,2013-04-11 11:14:00,
2013-04-11 07:15:00,63.7,48.2,29.93,ENE,58,0.0,0.0,57,0.00,CLR,,0.00,WeatherDisplay:10.37,2013-04-11 11:15:00,
2013-04-11 07:19:00,63.4,48.4,29.93,ESE,121,4.2,4.6,58,0.00,CLR,,0.00,WeatherDisplay:10.37,2013-04-11 11:19:00,
2013-04-11 07:20:00,62.9,47.9,29.93,East,88,3.3,4.6,58,0.00,CLR,,0.00,WeatherDisplay:10.37,2013-04-11 11:20:00,
2013-04-11 07:24:00,63.9,49.7,29.94,ENE,71,0.0,0.0,60,0.00,CLR,,0.00,WeatherDisplay:10.37,2013-04-11 11:24:00,
2013-04-11 07:25:00,63.3,49.2,29.94,ENE,71,0.0,0.0,60,0.00,CLR,,0.00,WeatherDisplay:10.37,2013-04-11 11:25:00,
2013-04-11 07:26:00,63.2,48.6,29.94,ENE,71,0.0,0.0,59,0.00,CLR,,0.00,WeatherDisplay:10.37,2013-04-11 11:26:00,
2013-04-11 07:29:00,63.5,48.5,29.94,NE,55,0.0,0.0,58,0.00,CLR,,0.00,WeatherDisplay:10.37,2013-04-11 11:29:00,
2013-04-11 07:30:00,63.8,48.3,29.94,NE,55,0.0,0.0,57,0.00,CLR,,0.00,WeatherDisplay:10.37,2013-04-11 11:30:00,
2013-04-11 07:31:00,63.3,47.8,29.94,East,88,3.6,4.8,57,0.00,CLR,,0.00,WeatherDisplay:10.37,2013-04-11 11:31:00,
2013-04-11 07:35:00,64.1,48.1,29.94,NE,56,1.7,5.3,56,0.00,CLR,,0.00,WeatherDisplay:10.37,2013-04-11 11:35:00,
2013-04-11 07:36:00,64.7,48.2,29.94,ENE,75,4.8,5.8,55,0.00,CLR,,0.00,WeatherDisplay:10.37,2013-04-11 11:36:00,
2013-04-11 07:40:00,64.8,46.2,29.94,ENE,59,5.5,6.9,51,0.00,CLR,,0.00,WeatherDisplay:10.37,2013-04-11 11:40:00,
2013-04-11 07:41:00,65.2,46.6,29.94,ENE,65,5.2,5.8,51,0.00,CLR,,0.00,WeatherDisplay:10.37,2013-04-11 11:41:00,
2013-04-11 07:45:00,64.9,46.3,29.94,East,100,1.4,4.6,51,0.00,CLR,,0.00,WeatherDisplay:10.37,2013-04-11 11:45:00,
2013-04-11 07:47:00,65.4,47.3,29.94,East,89,1.8,4.6,52,0.00,CLR,,0.00,WeatherDisplay:10.37,2013-04-11 11:47:00,
2013-04-11 07:50:00,65.3,47.2,29.94,NE,45,0.0,0.0,52,0.00,CLR,,0.00,WeatherDisplay:10.37,2013-04-11 11:50:00,
2013-04-11 07:51:00,65.3,47.2,29.94,NE,45,0.0,0.0,52,0.00,CLR,,0.00,WeatherDisplay:10.37,2013-04-11 11:51:00,
2013-04-11 07:52:00,64.9,46.8,29.94,NE,45,0.0,0.0,52,0.00,CLR,,0.00,WeatherDisplay:10.37,2013-04-11 11:52:00,
2013-04-11 07:55:00,65.5,46.4,29.94,NE,45,0.0,0.0,50,0.00,CLR,,0.00,WeatherDisplay:10.37,2013-04-11 11:55:00,
2013-04-11 07:57:00,65.5,46.9,29.94,NE,47,0.7,4.5,51,0.00,CLR,,0.00,WeatherDisplay:10.37,2013-04-11 11:57:00,
2013-04-11 08:00:00,65.8,46.1,29.95,NE,51,0.0,0.0,49,0.00,CLR,,0.00,WeatherDisplay:10.37,2013-04-11 12:00:00,
2013-04-11 08:02:00,65.8,45.0,29.95,NE,51,0.0,0.0,47,0.00,CLR,,0.00,WeatherDisplay:10.37,2013-04-11 12:02:00,
2013-04-11 08:05:00,65.6,47.0,29.95,NE,51,0.0,0.0,51,0.00,CLR,,0.00,WeatherDisplay:10.37,2013-04-11 12:05:00,
2013-04-11 08:07:00,65.3,47.2,29.95,NE,51,0.0,0.0,52,0.00,CLR,,0.00,WeatherDisplay:10.37,2013-04-11 12:07:00,
2013-04-11 08:10:00,65.2,46.6,29.95,NE,51,0.0,0.0,51,0.00,CLR,,0.00,WeatherDisplay:10.37,2013-04-11 12:10:00,
2013-04-11 08:12:00,65.2,46.1,29.95,NE,51,0.0,0.0,50,0.00,CLR,,0.00,WeatherDisplay:10.37,2013-04-11 12:12:00,
2013-04-11 08:15:00,65.3,46.7,29.95,NE,51,0.0,0.0,51,0.00,CLR,,0.00,WeatherDisplay:10.37,2013-04-11 12:15:00,
2013-04-11 08:16:00,65.3,46.7,29.95,NE,51,0.0,0.0,51,0.00,CLR,,0.00,WeatherDisplay:10.37,2013-04-11 12:16:00,
2013-04-11 08:17:00,65.3,46.7,29.95,NE,51,0.0,0.0,51,0.00,CLR,,0.00,WeatherDisplay:10.37,2013-04-11 12:17:00,
2013-04-11 08:18:00,65.4,47.3,29.95,NE,51,0.0,0.0,52,0.00,CLR,,0.00,WeatherDisplay:10.37,2013-04-11 12:18:00,
2013-04-11 08:21:00,65.4,48.3,29.95,ENE,69,2.2,4.6,54,0.00,CLR,,0.00,WeatherDisplay:10.37,2013-04-11 12:21:00,
2013-04-11 08:23:00,65.6,49.5,29.95,ENE,69,0.0,0.0,56,0.00,CLR,,0.00,WeatherDisplay:10.37,2013-04-11 12:23:00,
2013-04-11 08:26:00,65.7,48.1,29.95,ENE,69,0.0,0.0,53,0.00,CLR,,0.00,WeatherDisplay:10.37,2013-04-11 12:26:00,
2013-04-11 08:27:00,65.4,48.3,29.95,ENE,69,0.0,0.0,54,0.00,CLR,,0.00,WeatherDisplay:10.37,2013-04-11 12:27:00,
2013-04-11 08:28:00,65.5,48.9,29.95,ENE,69,0.0,0.0,55,0.00,CLR,,0.00,WeatherDisplay:10.37,2013-04-11 12:28:00,
2013-04-11 08:31:00,65.0,48.4,29.95,ENE,66,4.5,6.9,55,0.00,CLR,,0.00,WeatherDisplay:10.37,2013-04-11 12:31:00,
2013-04-11 08:32:00,65.3,48.2,29.95,East,80,2.6,5.8,54,0.00,CLR,,0.00,WeatherDisplay:10.37,2013-04-11 12:32:00,
2013-04-11 08:33:00,65.6,48.5,29.95,East,80,0.0,2.3,54,0.00,CLR,,0.00,WeatherDisplay:10.37,2013-04-11 12:33:00,
2013-04-11 08:36:00,65.7,46.5,29.95,East,80,0.0,0.0,50,0.00,CLR,,0.00,WeatherDisplay:10.37,2013-04-11 12:36:00,
2013-04-11 08:37:00,65.7,47.1,29.95,East,80,0.0,0.0,51,0.00,CLR,,0.00,WeatherDisplay:10.37,2013-04-11 12:37:00,
2013-04-11 08:38:00,66.1,46.9,29.95,ENE,65,1.5,4.4,50,0.00,CLR,,0.00,WeatherDisplay:10.37,2013-04-11 12:38:00,
2013-04-11 08:42:00,66.0,46.8,29.95,ENE,65,4.5,6.9,50,0.00,CLR,,0.00,WeatherDisplay:10.37,2013-04-11 12:42:00,
2013-04-11 08:43:00,66.1,46.9,29.95,ENE,59,2.8,5.8,50,0.00,CLR,,0.00,WeatherDisplay:10.37,2013-04-11 12:43:00,
2013-04-11 08:44:00,65.9,46.7,29.95,ENE,59,0.5,5.8,50,0.00,CLR,,0.00,WeatherDisplay:10.37,2013-04-11 12:44:00,
2013-04-11 08:47:00,66.2,47.0,29.95,ENE,59,0.0,0.0,50,0.00,CLR,,0.00,WeatherDisplay:10.37,2013-04-11 12:47:00,
2013-04-11 08:48:00,66.7,47.5,29.95,ENE,59,0.0,0.0,50,0.00,CLR,,0.00,WeatherDisplay:10.37,2013-04-11 12:48:00,
2013-04-11 08:49:00,66.7,47.5,29.95,ENE,59,0.0,0.0,50,0.00,CLR,,0.00,WeatherDisplay:10.37,2013-04-11 12:49:00,
2013-04-11 08:52:00,66.9,46.6,29.95,ENE,59,0.0,0.0,48,0.00,CLR,,0.00,WeatherDisplay:10.37,2013-04-11 12:52:00,
2013-04-11 08:53:00,66.8,45.9,29.95,ENE,59,0.0,0.0,47,0.00,CLR,,0.00,WeatherDisplay:10.37,2013-04-11 12:53:00,
2013-04-11 08:54:00,66.5,45.6,29.95,ENE,59,0.0,0.0,47,0.00,CLR,,0.00,WeatherDisplay:10.37,2013-04-11 12:54:00,
2013-04-11 08:58:00,67.0,46.7,29.95,ENE,59,0.0,0.0,48,0.00,CLR,,0.00,WeatherDisplay:10.37,2013-04-11 12:58:00,
2013-04-11 08:59:00,67.3,46.4,29.95,ENE,59,0.0,0.0,47,0.00,CLR,,0.00,WeatherDisplay:10.37,2013-04-11 12:59:00,
2013-04-11 09:03:00,68.1,44.7,29.95,ENE,59,2.2,6.9,43,0.00,CLR,,0.00,WeatherDisplay:10.37,2013-04-11 13:03:00,
2013-04-11 09:04:00,68.3,43.7,29.95,NE,54,3.7,6.9,41,0.00,CLR,,0.00,WeatherDisplay:10.37,2013-04-11 13:04:00,
2013-04-11 09:08:00,68.5,45.1,29.95,NE,54,5.2,8.1,43,0.00,CLR,,0.00,WeatherDisplay:10.37,2013-04-11 13:08:00,
2013-04-11 09:09:00,68.4,45.0,29.95,NE,56,4.0,8.1,43,0.00,CLR,,0.00,WeatherDisplay:10.37,2013-04-11 13:09:00,
2013-04-11 09:13:00,69.3,44.6,29.95,NE,52,1.5,5.3,41,0.00,CLR,,0.00,WeatherDisplay:10.37,2013-04-11 13:13:00,
2013-04-11 09:14:00,69.4,44.0,29.95,ENE,61,2.9,6.3,40,0.00,CLR,,0.00,WeatherDisplay:10.37,2013-04-11 13:14:00,
2013-04-11 09:15:00,69.3,42.6,29.95,NE,37,4.9,8.1,38,0.00,CLR,,0.00,WeatherDisplay:10.37,2013-04-11 13:15:00,
2013-04-11 09:18:00,70.1,41.2,29.95,NE,56,4.4,7.0,35,0.00,CLR,,0.00,WeatherDisplay:10.37,2013-04-11 13:18:00,
2013-04-11 09:19:00,70.0,41.8,29.95,NE,48,4.4,6.9,36,0.00,CLR,,0.00,WeatherDisplay:10.37,2013-04-11 13:19:00,
2013-04-11 09:20:00,69.6,40.7,29.95,NE,35,6.8,8.1,35,0.00,CLR,,0.00,WeatherDisplay:10.37,2013-04-11 13:20:00,
2013-04-11 09:23:00,69.7,41.5,29.95,NNE,32,3.9,6.9,36,0.00,CLR,,0.00,WeatherDisplay:10.37,2013-04-11 13:23:00,
2013-04-11 09:24:00,70.1,41.9,29.95,North,11,3.5,5.8,36,0.00,CLR,,0.00,WeatherDisplay:10.37,2013-04-11 13:24:00,
2013-04-11 09:25:00,70.4,41.4,29.95,NE,45,2.6,5.8,35,0.00,CLR,,0.00,WeatherDisplay:10.37,2013-04-11 13:25:00,
2013-04-11 09:28:00,71.0,40.4,29.95,NE,47,0.0,0.0,33,0.00,CLR,,0.00,WeatherDisplay:10.37,2013-04-11 13:28:00,
2013-04-11 09:29:00,71.5,39.3,29.95,NNE,21,2.5,5.8,31,0.00,CLR,,0.00,WeatherDisplay:10.37,2013-04-11 13:29:00,
2013-04-11 09:30:00,71.6,39.3,29.95,NNE,21,0.4,4.6,31,0.00,CLR,,0.00,WeatherDisplay:10.37,2013-04-11 13:30:00,
2013-04-11 09:33:00,72.6,37.6,29.95,NNE,21,0.0,0.0,28,0.00,CLR,,0.00,WeatherDisplay:10.37,2013-04-11 13:33:00,
2013-04-11 09:34:00,72.3,36.4,29.95,NNE,21,0.0,0.0,27,0.00,CLR,,0.00,WeatherDisplay:10.37,2013-04-11 13:34:00,
2013-04-11 09:35:00,72.6,36.7,29.95,NNE,21,0.0,0.0,27,0.00,CLR,,0.00,WeatherDisplay:10.37,2013-04-11 13:35:00,
2013-04-11 09:38:00,73.9,34.8,29.95,NNE,21,0.0,0.0,24,0.00,CLR,,0.00,WeatherDisplay:10.37,2013-04-11 13:38:00,
2013-04-11 09:39:00,74.4,34.2,29.95,NNE,21,0.0,0.0,23,0.00,CLR,,0.00,WeatherDisplay:10.37,2013-04-11 13:39:00,
2013-04-11 09:40:00,74.7,34.4,29.95,NNE,21,0.0,0.0,23,0.00,CLR,,0.00,WeatherDisplay:10.37,2013-04-11 13:40:00,
2013-04-11 09:43:00,74.9,32.3,29.95,NNE,21,0.0,0.0,21,0.00,CLR,,0.00,WeatherDisplay:10.37,2013-04-11 13:43:00,
2013-04-11 09:44:00,75.2,28.8,29.95,NNE,21,0.0,0.0,18,0.00,CLR,,0.00,WeatherDisplay:10.37,2013-04-11 13:44:00,
2013-04-11 09:45:00,75.1,28.7,29.95,NNE,21,0.0,0.0,18,0.00,CLR,,0.00,WeatherDisplay:10.37,2013-04-11 13:45:00,
2013-04-11 09:49:00,74.8,28.4,29.95,NNE,21,0.0,0.0,18,0.00,CLR,,0.00,WeatherDisplay:10.37,2013-04-11 13:49:00,
2013-04-11 09:50:00,75.0,29.9,29.95,NNE,21,0.0,0.0,19,0.00,CLR,,0.00,WeatherDisplay:10.37,2013-04-11 13:50:00,
2013-04-11 09:54:00,74.8,27.0,29.95,NNE,21,0.0,0.0,17,0.00,CLR,,0.00,WeatherDisplay:10.37,2013-04-11 13:54:00,
2013-04-11 09:55:00,74.8,27.0,29.95,NNE,21,0.0,0.0,17,0.00,CLR,,0.00,WeatherDisplay:10.37,2013-04-11 13:55:00,
2013-04-11 09:56:00,75.2,25.9,29.95,NNE,21,0.0,0.0,16,0.00,CLR,,0.00,WeatherDisplay:10.37,2013-04-11 13:56:00,
2013-04-11 10:00:00,75.3,26.0,29.95,NNE,21,0.0,0.0,16,0.00,CLR,,0.00,WeatherDisplay:10.37,2013-04-11 14:00:00,
2013-04-11 10:01:00,76.3,26.8,29.94,NNE,21,0.0,0.0,16,0.00,CLR,,0.00,WeatherDisplay:10.37,2013-04-11 14:01:00,
2013-04-11 10:05:00,75.3,32.6,29.94,North,0,0.0,0.0,21,0.00,CLR,,0.00,WeatherDisplay:10.37,2013-04-11 14:05:00,
2013-04-11 10:06:00,74.9,29.8,29.94,North,0,0.0,0.0,19,0.00,CLR,,0.00,WeatherDisplay:10.37,2013-04-11 14:06:00,
2013-04-11 10:07:00,75.2,30.1,29.94,North,0,0.0,0.0,19,0.00,CLR,,0.00,WeatherDisplay:10.37,2013-04-11 14:07:00,
2013-04-11 10:10:00,76.5,28.4,29.94,North,0,0.0,0.0,17,0.00,CLR,,0.00,WeatherDisplay:10.37,2013-04-11 14:10:00,
2013-04-11 10:11:00,76.4,25.3,29.94,North,0,0.0,0.0,15,0.00,CLR,,0.00,WeatherDisplay:10.37,2013-04-11 14:11:00,
2013-04-11 10:12:00,76.4,23.6,29.94,North,0,0.0,0.0,14,0.00,CLR,,0.00,WeatherDisplay:10.37,2013-04-11 14:12:00,
2013-04-11 10:15:00,76.9,25.7,29.94,North,0,0.0,0.0,15,0.00,CLR,,0.00,WeatherDisplay:10.37,2013-04-11 14:15:00,
2013-04-11 10:17:00,77.2,18.6,29.94,ESE,120,5.5,8.1,11,0.00,CLR,,0.00,WeatherDisplay:10.37,2013-04-11 14:17:00,
2013-04-11 10:18:00,77.8,19.0,29.94,SE,130,3.6,5.8,11,0.00,CLR,,0.00,WeatherDisplay:10.37,2013-04-11 14:18:00,
2013-04-11 10:20:00,77.4,18.7,29.94,SE,130,0.0,0.0,11,0.00,CLR,,0.00,WeatherDisplay:10.37,2013-04-11 14:20:00,
2013-04-11 10:22:00,78.7,19.7,29.94,SE,130,0.0,0.0,11,0.00,CLR,,0.00,WeatherDisplay:10.37,2013-04-11 14:22:00,
2013-04-11 10:23:00,77.8,16.8,29.94,SE,130,0.0,0.0,10,0.00,CLR,,0.00,WeatherDisplay:10.37,2013-04-11 14:23:00,
2013-04-11 10:25:00,77.1,11.2,29.94,East,90,1.2,3.5,8,0.00,CLR,,0.00,WeatherDisplay:10.37,2013-04-11 14:25:00,
2013-04-11 10:26:00,77.1,13.9,29.94,ESE,109,3.3,4.6,9,0.00,CLR,,0.00,WeatherDisplay:10.37,2013-04-11 14:26:00,
2013-04-11 10:28:00,79.3,18.0,29.94,ESE,109,0.0,0.0,10,0.00,CLR,,0.00,WeatherDisplay:10.37,2013-04-11 14:28:00,
2013-04-11 10:30:00,79.8,13.2,29.94,ESE,109,0.0,0.0,8,0.00,CLR,,0.00,WeatherDisplay:10.37,2013-04-11 14:30:00,
2013-04-11 10:31:00,78.1,11.9,29.94,ESE,109,0.0,0.0,8,0.00,CLR,,0.00,WeatherDisplay:10.37,2013-04-11 14:31:00,
2013-04-11 10:33:00,78.8,15.1,29.94,ESE,109,0.0,0.0,9,0.00,CLR,,0.00,WeatherDisplay:10.37,2013-04-11 14:33:00,
2013-04-11 10:35:00,77.9,16.9,29.94,East,100,4.9,6.9,10,0.00,CLR,,0.00,WeatherDisplay:10.37,2013-04-11 14:35:00,
2013-04-11 10:37:00,78.2,19.3,29.94,East,82,0.0,4.6,11,0.00,CLR,,0.00,WeatherDisplay:10.37,2013-04-11 14:37:00,
2013-04-11 10:38:00,77.0,20.5,29.94,East,82,0.0,0.0,12,0.00,CLR,,0.00,WeatherDisplay:10.37,2013-04-11 14:38:00,
2013-04-11 10:40:00,77.5,22.7,29.93,East,82,0.0,0.0,13,0.00,CLR,,0.00,WeatherDisplay:10.37,2013-04-11 14:40:00,
2013-04-11 10:42:00,77.2,20.6,29.93,East,82,0.0,0.0,12,0.00,CLR,,0.00,WeatherDisplay:10.37,2013-04-11 14:42:00,
2013-04-11 10:43:00,77.0,22.4,29.93,East,82,0.0,0.0,13,0.00,CLR,,0.00,WeatherDisplay:10.37,2013-04-11 14:43:00,
2013-04-11 10:44:00,77.0,22.4,29.93,East,82,0.0,0.0,13,0.00,CLR,,0.00,WeatherDisplay:10.37,2013-04-11 14:44:00,
2013-04-11 10:45:00,77.4,18.7,29.93,East,96,3.5,7.8,11,0.00,CLR,,0.00,WeatherDisplay:10.37,2013-04-11 14:45:00,
2013-04-11 10:47:00,77.2,22.5,29.93,SE,124,3.8,8.1,13,0.00,CLR,,0.00,WeatherDisplay:10.37,2013-04-11 14:47:00,
2013-04-11 10:49:00,77.1,20.5,29.93,SSE,155,5.0,8.1,12,0.00,CLR,,0.00,WeatherDisplay:10.37,2013-04-11 14:49:00,
2013-04-11 10:50:00,77.9,21.2,29.93,SSE,160,2.7,6.9,12,0.00,CLR,,0.00,WeatherDisplay:10.37,2013-04-11 14:50:00,
2013-04-11 10:52:00,77.3,18.7,29.93,SE,136,2.6,6.9,11,0.00,CLR,,0.00,WeatherDisplay:10.37,2013-04-11 14:52:00,
2013-04-11 10:54:00,77.9,19.1,29.93,ESE,119,3.3,4.8,11,0.00,CLR,,0.00,WeatherDisplay:10.37,2013-04-11 14:54:00,
2013-04-11 10:55:00,77.1,18.5,29.93,NE,52,4.7,6.9,11,0.00,CLR,,0.00,WeatherDisplay:10.37,2013-04-11 14:55:00,
2013-04-11 10:57:00,76.9,24.0,29.93,ENE,62,0.5,5.8,14,0.00,CLR,,0.00,WeatherDisplay:10.37,2013-04-11 14:57:00,
2013-04-11 10:59:00,77.1,22.4,29.93,NE,48,0.0,4.6,13,0.00,CLR,,0.00,WeatherDisplay:10.37,2013-04-11 14:59:00,
2013-04-11 11:01:00,76.4,23.6,29.93,NE,51,4.2,5.5,14,0.00,CLR,,0.00,WeatherDisplay:10.37,2013-04-11 15:01:00,
2013-04-11 11:03:00,76.7,25.5,29.93,NNE,30,0.4,4.6,15,0.00,CLR,,0.00,WeatherDisplay:10.37,2013-04-11 15:03:00,
2013-04-11 11:04:00,76.9,30.1,29.93,NE,47,2.9,5.4,18,0.00,CLR,,0.00,WeatherDisplay:10.37,2013-04-11 15:04:00,
2013-04-11 11:06:00,76.9,27.3,29.93,East,100,5.2,9.0,16,0.00,CLR,,0.00,WeatherDisplay:10.37,2013-04-11 15:06:00,
2013-04-11 11:08:00,76.9,24.0,29.93,East,88,3.8,8.1,14,0.00,CLR,,0.00,WeatherDisplay:10.37,2013-04-11 15:08:00,
2013-04-11 11:09:00,76.8,25.6,29.93,East,97,4.9,5.8,15,0.00,CLR,,0.00,WeatherDisplay:10.37,2013-04-11 15:09:00,
2013-04-11 11:11:00,77.2,25.9,29.93,NE,40,0.0,0.0,15,0.00,CLR,,0.00,WeatherDisplay:10.37,2013-04-11 15:11:00,
2013-04-11 11:13:00,77.4,20.8,29.93,East,95,2.2,3.5,12,0.00,CLR,,0.00,WeatherDisplay:10.37,2013-04-11 15:13:00,
2013-04-11 11:14:00,77.8,19.0,29.93,ENE,68,4.3,4.4,11,0.00,CLR,,0.00,WeatherDisplay:10.37,2013-04-11 15:14:00,
2013-04-11 11:16:00,77.9,21.2,29.93,East,82,5.9,8.1,12,0.00,CLR,,0.00,WeatherDisplay:10.37,2013-04-11 15:16:00,
2013-04-11 11:18:00,77.1,22.4,29.93,East,85,4.2,6.9,13,0.00,CLR,,0.00,WeatherDisplay:10.37,2013-04-11 15:18:00,
2013-04-11 11:19:00,77.2,24.3,29.93,ESE,121,3.3,6.9,14,0.00,CLR,,0.00,WeatherDisplay:10.37,2013-04-11 15:19:00,
2013-04-11 11:20:00,77.2,24.3,29.93,ESE,117,3.0,6.9,14,0.00,CLR,,0.00,WeatherDisplay:10.37,2013-04-11 15:20:00,
2013-04-11 11:21:00,77.7,21.0,29.93,East,90,6.9,10.4,12,0.00,CLR,,0.00,WeatherDisplay:10.37,2013-04-11 15:21:00,
2013-04-11 11:23:00,77.1,22.4,29.93,SE,131,4.9,6.9,13,0.00,CLR,,0.00,WeatherDisplay:10.37,2013-04-11 15:23:00,
2013-04-11 11:24:00,77.4,20.8,29.93,SE,145,5.9,10.2,12,0.00,CLR,,0.00,WeatherDisplay:10.37,2013-04-11 15:24:00,
2013-04-11 11:25:00,77.4,20.8,29.93,ESE,102,6.2,10.4,12,0.00,CLR,,0.00,WeatherDisplay:10.37,2013-04-11 15:25:00,
2013-04-11 11:27:00,77.9,16.9,29.93,ESE,116,6.0,11.5,10,0.00,CLR,,0.00,WeatherDisplay:10.37,2013-04-11 15:27:00,
2013-04-11 11:29:00,77.9,21.2,29.92,East,93,7.9,12.1,12,0.00,CLR,,0.00,WeatherDisplay:10.37,2013-04-11 15:29:00,
2013-04-11 11:30:00,78.0,19.2,29.93,ESE,116,9.4,10.4,11,0.00,CLR,,0.00,WeatherDisplay:10.37,2013-04-11 15:30:00,
2013-04-11 11:32:00,76.7,22.1,29.92,East,93,10.0,12.7,13,0.00,CLR,,0.00,WeatherDisplay:10.37,2013-04-11 15:32:00,
2013-04-11 11:34:00,76.8,25.6,29.92,NE,49,2.8,5.8,15,0.00,CLR,,0.00,WeatherDisplay:10.37,2013-04-11 15:34:00,
2013-04-11 11:35:00,76.8,27.2,29.92,NE,49,2.3,5.8,16,0.00,CLR,,0.00,WeatherDisplay:10.37,2013-04-11 15:35:00,
2013-04-11 11:36:00,77.0,24.1,29.92,East,97,3.2,7.0,14,0.00,CLR,,0.00,WeatherDisplay:10.37,2013-04-11 15:36:00,
2013-04-11 11:37:00,76.9,24.0,29.92,NE,56,5.6,6.9,14,0.00,CLR,,0.00,WeatherDisplay:10.37,2013-04-11 15:37:00,
2013-04-11 11:39:00,77.0,22.4,29.92,ESE,120,6.4,10.4,13,0.00,CLR,,0.00,WeatherDisplay:10.37,2013-04-11 15:39:00,
2013-04-11 11:40:00,77.4,22.7,29.92,SSW,195,5.8,10.4,13,0.00,CLR,,0.00,WeatherDisplay:10.37,2013-04-11 15:40:00,
2013-04-11 11:41:00,77.7,21.0,29.92,SSE,147,2.4,6.9,12,0.00,CLR,,0.00,WeatherDisplay:10.37,2013-04-11 15:41:00,
2013-04-11 11:43:00,77.3,20.7,29.92,East,82,5.9,10.4,12,0.00,CLR,,0.00,WeatherDisplay:10.37,2013-04-11 15:43:00,
2013-04-11 11:45:00,77.7,19.0,29.92,ESE,117,7.1,11.5,11,0.00,CLR,,0.00,WeatherDisplay:10.37,2013-04-11 15:45:00,
2013-04-11 11:47:00,77.5,16.6,29.92,SSE,168,7.5,11.5,10,0.00,CLR,,0.00,WeatherDisplay:10.37,2013-04-11 15:47:00,
2013-04-11 11:48:00,77.5,16.6,29.92,SSW,198,4.7,10.4,10,0.00,CLR,,0.00,WeatherDisplay:10.37,2013-04-11 15:48:00,
2013-04-11 11:50:00,77.2,20.6,29.91,East,88,7.6,12.7,12,0.00,CLR,,0.00,WeatherDisplay:10.37,2013-04-11 15:50:00,
2013-04-11 11:52:00,77.0,20.5,29.91,SE,124,8.1,11.5,12,0.00,CLR,,0.00,WeatherDisplay:10.37,2013-04-11 15:52:00,
2013-04-11 11:53:00,77.0,20.5,29.91,SE,140,6.9,10.4,12,0.00,CLR,,0.00,WeatherDisplay:10.37,2013-04-11 15:53:00,
2013-04-11 11:55:00,76.9,22.3,29.91,NE,38,6.1,9.2,13,0.00,CLR,,0.00,WeatherDisplay:10.37,2013-04-11 15:55:00,
2013-04-11 11:58:00,77.3,20.7,29.91,SSE,154,3.9,5.8,12,0.00,CLR,,0.00,WeatherDisplay:10.37,2013-04-11 15:58:00,
2013-04-11 12:00:00,77.9,11.8,29.90,SE,145,9.5,12.7,8,0.00,CLR,,0.00,WeatherDisplay:10.37,2013-04-11 16:00:00,
2013-04-11 12:03:00,78.8,15.1,29.90,ESE,102,4.9,11.6,9,0.00,CLR,,0.00,WeatherDisplay:10.37,2013-04-11 16:03:00,
2013-04-11 12:05:00,79.9,10.3,29.90,East,92,7.3,12.4,7,0.00,CLR,,0.00,WeatherDisplay:10.37,2013-04-11 16:05:00,
2013-04-11 12:08:00,80.1,10.4,29.90,SSE,165,6.8,12.7,7,0.00,CLR,,0.00,WeatherDisplay:10.37,2013-04-11 16:08:00,
2013-04-11 12:09:00,79.5,6.5,29.90,South,176,6.3,14.2,6,0.00,CLR,,0.00,WeatherDisplay:10.37,2013-04-11 16:09:00,
2013-04-11 12:10:00,80.3,7.1,29.90,SSW,203,4.9,13.8,6,0.00,CLR,,0.00,WeatherDisplay:10.37,2013-04-11 16:10:00,
2013-04-11 12:13:00,79.9,13.3,29.90,SSE,152,2.2,12.7,8,0.00,CLR,,0.00,WeatherDisplay:10.37,2013-04-11 16:13:00,
2013-04-11 12:14:00,79.0,12.6,29.90,SE,134,5.6,5.8,8,0.00,CLR,,0.00,WeatherDisplay:10.37,2013-04-11 16:14:00,
2013-04-11 12:15:00,78.9,15.2,29.90,SSE,164,4.5,9.2,9,0.00,CLR,,0.00,WeatherDisplay:10.37,2013-04-11 16:15:00,
2013-04-11 12:18:00,79.4,9.9,29.90,SE,127,1.0,5.8,7,0.00,CLR,,0.00,WeatherDisplay:10.37,2013-04-11 16:18:00,
2013-04-11 12:19:00,80.1,10.4,29.90,ESE,116,2.4,7.0,7,0.00,CLR,,0.00,WeatherDisplay:10.37,2013-04-11 16:19:00,
2013-04-11 12:20:00,79.9,10.3,29.89,ESE,106,5.3,6.9,7,0.00,CLR,,0.00,WeatherDisplay:10.37,2013-04-11 16:20:00,
2013-04-11 12:24:00,82.7,8.9,29.90,SSE,165,4.5,5.8,6,0.00,CLR,,0.00,WeatherDisplay:10.37,2013-04-11 16:24:00,
2013-04-11 12:25:00,80.9,7.6,29.89,SE,144,5.5,10.4,6,0.00,CLR,,0.00,WeatherDisplay:10.37,2013-04-11 16:25:00,
2013-04-11 12:29:00,80.4,7.2,29.89,SSW,198,2.9,10.4,6,0.00,CLR,,0.00,WeatherDisplay:10.37,2013-04-11 16:29:00,
2013-04-11 12:30:00,79.4,9.9,29.89,SSW,198,0.0,4.6,7,0.00,CLR,,0.00,WeatherDisplay:10.37,2013-04-11 16:30:00,
2013-04-11 12:31:00,80.4,10.6,29.89,ESE,107,5.9,8.4,7,0.00,CLR,,0.00,WeatherDisplay:10.37,2013-04-11 16:31:00,
2013-04-11 12:34:00,81.0,7.6,29.89,SSE,167,4.2,9.2,6,0.00,CLR,,0.00,WeatherDisplay:10.37,2013-04-11 16:34:00,
2013-04-11 12:35:00,81.9,8.3,29.89,SW,220,3.0,5.8,6,0.00,CLR,,0.00,WeatherDisplay:10.37,2013-04-11 16:35:00,
2013-04-11 12:36:00,82.4,8.6,29.89,East,97,4.1,9.2,6,0.00,CLR,,0.00,WeatherDisplay:10.37,2013-04-11 16:36:00,
2013-04-11 12:39:00,82.4,8.6,29.88,WSW,239,5.5,11.5,6,0.00,CLR,,0.00,WeatherDisplay:10.37,2013-04-11 16:39:00,
2013-04-11 12:40:00,82.8,8.9,29.88,South,181,6.6,10.2,6,0.00,CLR,,0.00,WeatherDisplay:10.37,2013-04-11 16:40:00,
2013-04-11 12:41:00,82.2,8.5,29.88,SSE,158,5.8,10.4,6,0.00,CLR,,0.00,WeatherDisplay:10.37,2013-04-11 16:41:00,
2013-04-11 12:42:00,81.8,8.2,29.88,SE,128,8.5,11.5,6,0.00,CLR,,0.00,WeatherDisplay:10.37,2013-04-11 16:42:00,
2013-04-11 12:44:00,81.3,7.8,29.88,WSW,244,2.0,11.1,6,0.00,CLR,,0.00,WeatherDisplay:10.37,2013-04-11 16:44:00,
2013-04-11 12:45:00,81.2,7.8,29.88,SSW,195,9.1,12.7,6,0.00,CLR,,0.00,WeatherDisplay:10.37,2013-04-11 16:45:00,
2013-04-11 12:48:00,79.2,9.8,29.88,NW,320,6.3,10.4,7,0.00,CLR,,0.00,WeatherDisplay:10.37,2013-04-11 16:48:00,
2013-04-11 12:49:00,81.0,11.1,29.88,South,169,4.2,8.1,7,0.00,CLR,,0.00,WeatherDisplay:10.37,2013-04-11 16:49:00,
2013-04-11 12:50:00,79.4,9.9,29.88,SE,130,1.6,8.1,7,0.00,CLR,,0.00,WeatherDisplay:10.37,2013-04-11 16:50:00,
2013-04-11 12:53:00,79.3,6.4,29.88,South,176,6.0,10.8,6,0.00,CLR,,0.00,WeatherDisplay:10.37,2013-04-11 16:53:00,
2013-04-11 12:54:00,80.2,7.1,29.88,SE,128,3.7,11.5,6,0.00,CLR,,0.00,WeatherDisplay:10.37,2013-04-11 16:54:00,
2013-04-11 12:55:00,80.7,10.9,29.88,SE,133,1.8,5.8,7,0.00,CLR,,0.00,WeatherDisplay:10.37,2013-04-11 16:55:00,
2013-04-11 12:57:00,81.0,7.6,29.88,SE,145,1.6,8.1,6,0.00,CLR,,0.00,WeatherDisplay:10.37,2013-04-11 16:57:00,
2013-04-11 12:58:00,80.5,7.3,29.88,SSW,195,3.5,6.9,6,0.00,CLR,,0.00,WeatherDisplay:10.37,2013-04-11 16:58:00,
2013-04-11 12:59:00,82.3,8.6,29.88,SSW,195,0.0,8.1,6,0.00,CLR,,0.00,WeatherDisplay:10.37,2013-04-11 16:59:00,
2013-04-11 13:00:00,82.1,8.4,29.88,SSE,152,4.3,7.7,6,0.00,CLR,,0.00,WeatherDisplay:10.37,2013-04-11 17:00:00,
2013-04-11 13:02:00,82.1,8.4,29.88,SE,143,3.6,8.1,6,0.00,CLR,,0.00,WeatherDisplay:10.37,2013-04-11 17:02:00,
2013-04-11 13:03:00,81.7,8.1,29.88,East,100,6.3,8.1,6,0.00,CLR,,0.00,WeatherDisplay:10.37,2013-04-11 17:03:00,
2013-04-11 13:04:00,81.5,8.0,29.88,SE,138,10.8,15.0,6,0.00,CLR,,0.00,WeatherDisplay:10.37,2013-04-11 17:04:00,
2013-04-11 13:06:00,80.4,7.2,29.88,South,176,11.8,16.1,6,0.00,CLR,,0.00,WeatherDisplay:10.37,2013-04-11 17:06:00,
2013-04-11 13:08:00,80.5,10.7,29.88,SE,130,6.9,8.1,7,0.00,CLR,,0.00,WeatherDisplay:10.37,2013-04-11 17:08:00,
2013-04-11 13:09:00,80.2,10.5,29.88,NW,323,3.4,10.4,7,0.00,CLR,,0.00,WeatherDisplay:10.37,2013-04-11 17:09:00,
2013-04-11 13:11:00,81.3,7.8,29.88,SSW,206,2.9,7.4,6,0.00,CLR,,0.00,WeatherDisplay:10.37,2013-04-11 17:11:00,
2013-04-11 13:13:00,82.1,8.4,29.88,SE,137,4.8,9.0,6,0.00,CLR,,0.00,WeatherDisplay:10.37,2013-04-11 17:13:00,
2013-04-11 13:14:00,81.2,7.8,29.87,ESE,121,10.5,13.8,6,0.00,CLR,,0.00,WeatherDisplay:10.37,2013-04-11 17:14:00,
2013-04-11 13:17:00,80.0,6.9,29.87,ESE,114,12.2,15.0,6,0.00,CLR,,0.00,WeatherDisplay:10.37,2013-04-11 17:17:00,
2013-04-11 13:18:00,80.2,7.1,29.87,ESE,106,6.9,15.0,6,0.00,CLR,,0.00,WeatherDisplay:10.37,2013-04-11 17:18:00,
2013-04-11 13:19:00,79.5,6.5,29.87,SSE,147,8.3,11.5,6,0.00,CLR,,0.00,WeatherDisplay:10.37,2013-04-11 17:19:00,
2013-04-11 13:22:00,81.1,7.7,29.87,SW,232,6.3,10.4,6,0.00,CLR,,0.00,WeatherDisplay:10.37,2013-04-11 17:22:00,
2013-04-11 13:23:00,82.2,8.5,29.87,South,172,1.5,6.9,6,0.00,CLR,,0.00,WeatherDisplay:10.37,2013-04-11 17:23:00,
2013-04-11 13:24:00,81.5,8.0,29.87,East,92,2.0,6.9,6,0.00,CLR,,0.00,WeatherDisplay:10.37,2013-04-11 17:24:00,
2013-04-11 13:27:00,83.4,5.3,29.87,SE,133,7.9,13.8,5,0.00,CLR,,0.00,WeatherDisplay:10.37,2013-04-11 17:27:00,
2013-04-11 13:28:00,83.6,5.5,29.87,SSW,192,2.4,6.9,5,0.00,CLR,,0.00,WeatherDisplay:10.37,2013-04-11 17:28:00,
2013-04-11 13:29:00,84.5,6.1,29.87,ESE,112,4.9,10.4,5,0.00,CLR,,0.00,WeatherDisplay:10.37,2013-04-11 17:29:00,
2013-04-11 13:30:00,84.1,5.8,29.87,SSE,147,7.2,11.5,5,0.00,CLR,,0.00,WeatherDisplay:10.37,2013-04-11 17:30:00,
2013-04-11 13:32:00,82.3,8.6,29.87,West,281,6.5,12.7,6,0.00,CLR,,0.00,WeatherDisplay:10.37,2013-04-11 17:32:00,
2013-04-11 13:33:00,82.8,8.9,29.87,SSW,209,3.6,12.6,6,0.00,CLR,,0.00,WeatherDisplay:10.37,2013-04-11 17:33:00,
2013-04-11 13:34:00,82.1,8.4,29.87,SE,131,5.3,6.9,6,0.00,CLR,,0.00,WeatherDisplay:10.37,2013-04-11 17:34:00,
2013-04-11 13:35:00,82.2,8.5,29.87,SSW,213,3.7,12.7,6,0.00,CLR,,0.00,WeatherDisplay:10.37,2013-04-11 17:35:00,
2013-04-11 13:38:00,83.2,9.2,29.86,SSW,192,1.6,6.9,6,0.00,CLR,,0.00,WeatherDisplay:10.37,2013-04-11 17:38:00,
2013-04-11 13:39:00,82.9,5.0,29.87,ESE,116,2.3,6.0,5,0.00,CLR,,0.00,WeatherDisplay:10.37,2013-04-11 17:39:00,
2013-04-11 13:40:00,81.1,3.7,29.86,SSW,210,6.6,10.4,5,0.00,CLR,,0.00,WeatherDisplay:10.37,2013-04-11 17:40:00,
2013-04-11 13:43:00,81.4,7.9,29.86,SE,136,5.7,10.8,6,0.00,CLR,,0.00,WeatherDisplay:10.37,2013-04-11 17:43:00,
2013-04-11 13:44:00,81.5,8.0,29.86,SSE,160,6.2,8.5,6,0.00,CLR,,0.00,WeatherDisplay:10.37,2013-04-11 17:44:00,
2013-04-11 13:45:00,82.1,4.4,29.86,SSE,160,3.5,11.5,5,0.00,CLR,,0.00,WeatherDisplay:10.37,2013-04-11 17:45:00,
2013-04-11 13:49:00,80.9,7.6,29.86,SSW,192,2.6,8.1,6,0.00,CLR,,0.00,WeatherDisplay:10.37,2013-04-11 17:49:00,
2013-04-11 13:50:00,81.6,8.1,29.86,South,181,6.8,11.4,6,0.00,CLR,,0.00,WeatherDisplay:10.37,2013-04-11 17:50:00,
2013-04-11 13:54:00,83.9,5.7,29.86,WSW,257,1.8,6.0,5,0.00,CLR,,0.00,WeatherDisplay:10.37,2013-04-11 17:54:00,
2013-04-11 13:55:00,83.3,5.3,29.86,SE,131,6.1,6.9,5,0.00,CLR,,0.00,WeatherDisplay:10.37,2013-04-11 17:55:00,
2013-04-11 13:59:00,83.7,5.5,29.85,SW,222,1.8,7.5,5,0.00,CLR,,0.00,WeatherDisplay:10.37,2013-04-11 17:59:00,
2013-04-11 14:00:00,82.4,4.6,29.85,South,179,6.4,6.9,5,0.00,CLR,,0.00,WeatherDisplay:10.37,2013-04-11 18:00:00,
2013-04-11 14:04:00,83.2,5.2,29.85,South,175,4.7,9.2,5,0.00,CLR,,0.00,WeatherDisplay:10.37,2013-04-11 18:04:00,
2013-04-11 14:05:00,82.3,8.6,29.85,South,175,0.9,6.9,6,0.00,CLR,,0.00,WeatherDisplay:10.37,2013-04-11 18:05:00,
2013-04-11 14:06:00,82.8,4.9,29.85,South,175,0.0,6.9,5,0.00,CLR,,0.00,WeatherDisplay:10.37,2013-04-11 18:06:00,
2013-04-11 14:09:00,83.6,5.5,29.85,SW,223,9.6,11.5,5,0.00,CLR,,0.00,WeatherDisplay:10.37,2013-04-11 18:09:00,
2013-04-11 14:10:00,84.3,6.0,29.85,SSE,155,8.8,11.5,5,0.00,CLR,,0.00,WeatherDisplay:10.37,2013-04-11 18:10:00,
2013-04-11 14:11:00,83.7,5.5,29.85,SSE,168,5.8,15.0,5,0.00,CLR,,0.00,WeatherDisplay:10.37,2013-04-11 18:11:00,
2013-04-11 14:15:00,82.9,5.0,29.85,ESE,120,4.8,11.5,5,0.00,CLR,,0.00,WeatherDisplay:10.37,2013-04-11 18:15:00,
2013-04-11 14:17:00,82.3,4.5,29.85,South,171,5.8,10.8,5,0.00,CLR,,0.00,WeatherDisplay:10.37,2013-04-11 18:17:00,
2013-04-11 14:20:00,82.6,4.8,29.85,SE,143,7.6,11.7,5,0.00,CLR,,0.00,WeatherDisplay:10.37,2013-04-11 18:20:00,
2013-04-11 14:22:00,82.5,4.7,29.85,SSW,212,4.6,11.5,5,0.00,CLR,,0.00,WeatherDisplay:10.37,2013-04-11 18:22:00,
2013-04-11 14:25:00,83.4,5.3,29.84,East,99,1.4,4.6,5,0.00,CLR,,0.00,WeatherDisplay:10.37,2013-04-11 18:25:00,
2013-04-11 14:26:00,83.7,5.5,29.84,East,100,3.5,5.8,5,0.00,CLR,,0.00,WeatherDisplay:10.37,2013-04-11 18:26:00,
2013-04-11 14:27:00,84.6,6.2,29.85,SE,144,4.1,5.8,5,0.00,CLR,,0.00,WeatherDisplay:10.37,2013-04-11 18:27:00,
2013-04-11 14:30:00,85.4,6.7,29.84,South,175,9.1,13.8,5,0.00,CLR,,0.00,WeatherDisplay:10.37,2013-04-11 18:30:00,
2013-04-11 14:31:00,84.5,6.1,29.84,SE,140,4.9,11.5,5,0.00,CLR,,0.00,WeatherDisplay:10.37,2013-04-11 18:31:00,
2013-04-11 14:32:00,84.5,6.1,29.84,SE,138,5.9,11.5,5,0.00,CLR,,0.00,WeatherDisplay:10.37,2013-04-11 18:32:00,
2013-04-11 14:35:00,83.4,5.3,29.84,West,271,5.1,9.2,5,0.00,CLR,,0.00,WeatherDisplay:10.37,2013-04-11 18:35:00,
2013-04-11 14:36:00,82.8,4.9,29.84,SSE,162,4.8,9.2,5,0.00,CLR,,0.00,WeatherDisplay:10.37,2013-04-11 18:36:00,
2013-04-11 14:37:00,83.4,5.3,29.84,SE,136,4.0,8.1,5,0.00,CLR,,0.00,WeatherDisplay:10.37,2013-04-11 18:37:00,
2013-04-11 14:40:00,84.0,5.7,29.84,South,189,4.7,10.4,5,0.00,CLR,,0.00,WeatherDisplay:10.37,2013-04-11 18:40:00,
2013-04-11 14:41:00,84.7,6.2,29.84,SE,133,4.3,8.1,5,0.00,CLR,,0.00,WeatherDisplay:10.37,2013-04-11 18:41:00,
2013-04-11 14:42:00,83.3,5.3,29.84,West,272,5.9,12.7,5,0.00,CLR,,0.00,WeatherDisplay:10.37,2013-04-11 18:42:00,
2013-04-11 14:43:00,83.3,5.3,29.84,West,272,5.9,12.7,5,0.00,CLR,,0.00,WeatherDisplay:10.37,2013-04-11 18:43:00,
2013-04-11 14:45:00,84.9,6.4,29.83,SSW,212,6.4,10.5,5,0.00,CLR,,0.00,WeatherDisplay:10.37,2013-04-11 18:45:00,
2013-04-11 14:47:00,84.2,5.9,29.83,West,271,5.8,10.4,5,0.00,CLR,,0.00,WeatherDisplay:10.37,2013-04-11 18:47:00,
2013-04-11 14:48:00,83.5,5.4,29.83,SSW,193,6.5,12.7,5,0.00,CLR,,0.00,WeatherDisplay:10.37,2013-04-11 18:48:00,
2013-04-11 14:50:00,84.4,6.0,29.83,SSE,165,8.4,13.8,5,0.00,CLR,,0.00,WeatherDisplay:10.37,2013-04-11 18:50:00,
2013-04-11 14:52:00,83.8,5.6,29.83,SSW,213,7.1,11.5,5,0.00,CLR,,0.00,WeatherDisplay:10.37,2013-04-11 18:52:00,
2013-04-11 14:53:00,84.5,10.2,29.83,SE,145,3.3,7.3,6,0.00,CLR,,0.00,WeatherDisplay:10.37,2013-04-11 18:53:00,
2013-04-11 14:55:00,83.6,5.5,29.83,South,175,7.1,12.7,5,0.00,CLR,,0.00,WeatherDisplay:10.37,2013-04-11 18:55:00,
2013-04-11 14:57:00,82.8,4.9,29.83,SSE,164,8.0,18.4,5,0.00,CLR,,0.00,WeatherDisplay:10.37,2013-04-11 18:57:00,
2013-04-11 14:58:00,83.5,5.4,29.83,South,172,9.0,18.4,5,0.00,CLR,,0.00,WeatherDisplay:10.37,2013-04-11 18:58:00,
2013-04-11 15:00:00,82.5,8.7,29.83,SE,144,3.5,5.3,6,0.00,CLR,,0.00,WeatherDisplay:10.37,2013-04-11 19:00:00,
2013-04-11 15:02:00,81.8,4.2,29.83,South,174,0.0,6.9,5,0.00,CLR,,0.00,WeatherDisplay:10.37,2013-04-11 19:02:00,
2013-04-11 15:03:00,82.4,4.6,29.83,SSE,147,2.4,4.6,5,0.00,CLR,,0.00,WeatherDisplay:10.37,2013-04-11 19:03:00,
2013-04-11 15:06:00,83.2,5.2,29.83,ESE,112,3.8,11.5,5,0.00,CLR,,0.00,WeatherDisplay:10.37,2013-04-11 19:06:00,
2013-04-11 15:08:00,82.1,8.4,29.83,ESE,120,4.6,9.2,6,0.00,CLR,,0.00,WeatherDisplay:10.37,2013-04-11 19:08:00,
2013-04-11 15:12:00,80.7,7.4,29.82,SE,130,6.4,12.7,6,0.00,CLR,,0.00,WeatherDisplay:10.37,2013-04-11 19:12:00,
2013-04-11 15:13:00,80.4,7.2,29.82,ESE,102,6.2,9.1,6,0.00,CLR,,0.00,WeatherDisplay:10.37,2013-04-11 19:13:00,
2013-04-11 15:14:00,80.1,7.0,29.82,East,93,6.8,8.1,6,0.00,CLR,,0.00,WeatherDisplay:10.37,2013-04-11 19:14:00,
2013-04-11 15:17:00,79.7,6.7,29.82,SSE,160,7.9,11.5,6,0.00,CLR,,0.00,WeatherDisplay:10.37,2013-04-11 19:17:00,
2013-04-11 15:18:00,80.3,7.1,29.82,South,186,4.1,10.4,6,0.00,CLR,,0.00,WeatherDisplay:10.37,2013-04-11 19:18:00,
2013-04-11 15:19:00,80.3,7.1,29.82,SE,134,6.2,10.4,6,0.00,CLR,,0.00,WeatherDisplay:10.37,2013-04-11 19:19:00,
2013-04-11 15:22:00,78.4,5.8,29.82,ESE,120,6.8,13.2,6,0.00,CLR,,0.00,WeatherDisplay:10.37,2013-04-11 19:22:00,
2013-04-11 15:24:00,80.1,7.0,29.82,SE,141,5.9,10.4,6,0.00,CLR,,0.00,WeatherDisplay:10.37,2013-04-11 19:24:00,
2013-04-11 15:27:00,80.3,7.1,29.82,West,267,5.4,9.1,6,0.00,CLR,,0.00,WeatherDisplay:10.37,2013-04-11 19:27:00,
2013-04-11 15:29:00,80.4,7.2,29.82,SSE,157,5.2,13.8,6,0.00,CLR,,0.00,WeatherDisplay:10.37,2013-04-11 19:29:00,
2013-04-11 15:33:00,78.5,5.8,29.82,East,100,7.1,13.2,6,0.00,CLR,,0.00,WeatherDisplay:10.37,2013-04-11 19:33:00,
2013-04-11 15:34:00,79.3,9.8,29.82,SE,133,9.4,16.1,7,0.00,CLR,,0.00,WeatherDisplay:10.37,2013-04-11 19:34:00,
2013-04-11 15:35:00,78.4,9.2,29.82,SSE,158,5.6,11.5,7,0.00,CLR,,0.00,WeatherDisplay:10.37,2013-04-11 19:35:00,
2013-04-11 15:38:00,79.7,6.7,29.82,SSW,202,2.1,8.3,6,0.00,CLR,,0.00,WeatherDisplay:10.37,2013-04-11 19:38:00,
2013-04-11 15:39:00,78.8,9.5,29.82,ENE,61,1.6,10.4,7,0.00,CLR,,0.00,WeatherDisplay:10.37,2013-04-11 19:39:00,
2013-04-11 15:40:00,79.7,6.7,29.82,WSW,244,2.3,5.8,6,0.00,CLR,,0.00,WeatherDisplay:10.37,2013-04-11 19:40:00,
2013-04-11 15:43:00,79.2,6.3,29.82,WSW,237,5.2,11.5,6,0.00,CLR,,0.00,WeatherDisplay:10.37,2013-04-11 19:43:00,
2013-04-11 15:45:00,78.4,5.8,29.82,South,186,8.4,11.5,6,0.00,CLR,,0.00,WeatherDisplay:10.37,2013-04-11 19:45:00,
2013-04-11 15:48:00,79.2,9.8,29.82,SW,226,6.7,10.9,7,0.00,CLR,,0.00,WeatherDisplay:10.37,2013-04-11 19:48:00,
2013-04-11 15:50:00,79.5,6.5,29.82,East,88,6.3,11.5,6,0.00,CLR,,0.00,WeatherDisplay:10.37,2013-04-11 19:50:00,
2013-04-11 15:54:00,80.2,10.5,29.82,East,89,2.2,11.5,7,0.00,CLR,,0.00,WeatherDisplay:10.37,2013-04-11 19:54:00,
2013-04-11 15:55:00,79.1,6.3,29.82,WSW,250,5.4,9.2,6,0.00,CLR,,0.00,WeatherDisplay:10.37,2013-04-11 19:55:00,
2013-04-11 15:59:00,77.9,8.8,29.82,SSE,162,5.6,10.9,7,0.00,CLR,,0.00,WeatherDisplay:10.37,2013-04-11 19:59:00,
2013-04-11 16:00:00,78.8,9.5,29.82,South,182,7.6,13.8,7,0.00,CLR,,0.00,WeatherDisplay:10.37,2013-04-11 20:00:00,
2013-04-11 16:04:00,78.8,9.5,29.81,SE,143,3.8,6.9,7,0.00,CLR,,0.00,WeatherDisplay:10.37,2013-04-11 20:04:00,
2013-04-11 16:05:00,79.4,9.9,29.81,SE,128,4.9,6.9,7,0.00,CLR,,0.00,WeatherDisplay:10.37,2013-04-11 20:05:00,
2013-04-11 16:06:00,79.1,6.3,29.81,SSE,147,4.0,6.9,6,0.00,CLR,,0.00,WeatherDisplay:10.37,2013-04-11 20:06:00,
2013-04-11 16:09:00,78.9,9.5,29.81,WSW,258,8.7,19.6,7,0.00,CLR,,0.00,WeatherDisplay:10.37,2013-04-11 20:09:00,
2013-04-11 16:10:00,78.3,9.1,29.81,West,268,5.5,9.2,7,0.00,CLR,,0.00,WeatherDisplay:10.37,2013-04-11 20:10:00,
2013-04-11 16:11:00,78.9,9.5,29.81,SSE,167,3.9,9.2,7,0.00,CLR,,0.00,WeatherDisplay:10.37,2013-04-11 20:11:00,
2013-04-11 16:14:00,79.0,9.6,29.81,East,100,8.2,10.4,7,0.00,CLR,,0.00,WeatherDisplay:10.37,2013-04-11 20:14:00,
2013-04-11 16:15:00,79.1,9.7,29.81,SSE,154,7.7,10.4,7,0.00,CLR,,0.00,WeatherDisplay:10.37,2013-04-11 20:15:00,
2013-04-11 16:16:00,79.7,6.7,29.81,ENE,58,9.0,13.8,6,0.00,CLR,,0.00,WeatherDisplay:10.37,2013-04-11 20:16:00,
2013-04-11 16:19:00,79.9,6.8,29.81,SSW,198,7.7,9.2,6,0.00,CLR,,0.00,WeatherDisplay:10.37,2013-04-11 20:19:00,
2013-04-11 16:20:00,79.5,6.5,29.81,SE,140,7.8,10.4,6,0.00,CLR,,0.00,WeatherDisplay:10.37,2013-04-11 20:20:00,
2013-04-11 16:21:00,80.5,7.3,29.81,ESE,102,5.9,10.4,6,0.00,CLR,,0.00,WeatherDisplay:10.37,2013-04-11 20:21:00,
2013-04-11 16:25:00,79.5,6.5,29.81,South,184,9.4,12.7,6,0.00,CLR,,0.00,WeatherDisplay:10.37,2013-04-11 20:25:00,
2013-04-11 16:26:00,79.7,6.7,29.81,SSE,152,7.3,12.7,6,0.00,CLR,,0.00,WeatherDisplay:10.37,2013-04-11 20:26:00,
2013-04-11 16:30:00,79.5,6.5,29.80,WSW,241,5.4,13.8,6,0.00,CLR,,0.00,WeatherDisplay:10.37,2013-04-11 20:30:00,
2013-04-11 16:31:00,79.1,9.7,29.81,SSE,161,6.0,11.5,7,0.00,CLR,,0.00,WeatherDisplay:10.37,2013-04-11 20:31:00,
2013-04-11 16:32:00,79.8,10.2,29.81,SSE,161,6.2,11.5,7,0.00,CLR,,0.00,WeatherDisplay:10.37,2013-04-11 20:32:00,
2013-04-11 16:35:00,79.5,10.0,29.81,South,186,9.6,16.1,7,0.00,CLR,,0.00,WeatherDisplay:10.37,2013-04-11 20:35:00,
2013-04-11 16:37:00,79.3,9.8,29.81,SE,136,5.5,10.4,7,0.00,CLR,,0.00,WeatherDisplay:10.37,2013-04-11 20:37:00,
2013-04-11 16:40:00,79.9,10.3,29.80,SW,217,7.0,8.1,7,0.00,CLR,,0.00,WeatherDisplay:10.37,2013-04-11 20:40:00,
2013-04-11 16:42:00,79.9,10.3,29.80,East,99,5.3,9.2,7,0.00,CLR,,0.00,WeatherDisplay:10.37,2013-04-11 20:42:00,
2013-04-11 16:45:00,80.0,10.3,29.80,SSE,148,8.5,15.0,7,0.00,CLR,,0.00,WeatherDisplay:10.37,2013-04-11 20:45:00,
2013-04-11 16:47:00,78.2,9.0,29.80,East,90,10.7,19.6,7,0.00,CLR,,0.00,WeatherDisplay:10.37,2013-04-11 20:47:00,
2013-04-11 16:51:00,79.0,12.6,29.80,SE,137,8.4,12.7,8,0.00,CLR,,0.00,WeatherDisplay:10.37,2013-04-11 20:51:00,
2013-04-11 16:52:00,79.0,12.6,29.80,ESE,107,5.2,11.5,8,0.00,CLR,,0.00,WeatherDisplay:10.37,2013-04-11 20:52:00,
2013-04-11 16:56:00,79.8,13.2,29.80,ESE,113,3.5,9.2,8,0.00,CLR,,0.00,WeatherDisplay:10.37,2013-04-11 20:56:00,
2013-04-11 16:57:00,79.0,9.6,29.80,SSW,206,3.8,8.1,7,0.00,CLR,,0.00,WeatherDisplay:10.37,2013-04-11 20:57:00,
2013-04-11 16:58:00,80.4,13.7,29.80,SW,226,4.7,9.4,8,0.00,CLR,,0.00,WeatherDisplay:10.37,2013-04-11 20:58:00,
2013-04-11 17:02:00,79.5,10.0,29.80,South,182,6.2,9.2,7,0.00,CLR,,0.00,WeatherDisplay:10.37,2013-04-11 21:02:00,
2013-04-11 17:03:00,79.5,10.0,29.80,South,182,6.2,9.2,7,0.00,CLR,,0.00,WeatherDisplay:10.37,2013-04-11 21:03:00,
2013-04-11 17:04:00,80.4,10.6,29.80,WNW,282,6.0,9.2,7,0.00,CLR,,0.00,WeatherDisplay:10.37,2013-04-11 21:04:00,
2013-04-11 17:07:00,80.6,10.8,29.80,NW,319,5.2,16.1,7,0.00,CLR,,0.00,WeatherDisplay:10.37,2013-04-11 21:07:00,
2013-04-11 17:08:00,79.2,9.8,29.80,SSE,148,5.0,9.9,7,0.00,CLR,,0.00,WeatherDisplay:10.37,2013-04-11 21:08:00,
2013-04-11 17:09:00,80.1,10.4,29.80,South,178,6.9,11.5,7,0.00,CLR,,0.00,WeatherDisplay:10.37,2013-04-11 21:09:00,
2013-04-11 17:13:00,78.4,9.2,29.80,South,169,7.7,10.4,7,0.00,CLR,,0.00,WeatherDisplay:10.37,2013-04-11 21:13:00,
2013-04-11 17:14:00,78.1,8.9,29.80,South,169,7.2,13.8,7,0.00,CLR,,0.00,WeatherDisplay:10.37,2013-04-11 21:14:00,
2013-04-11 17:18:00,80.2,10.5,29.79,South,189,4.4,8.7,7,0.00,CLR,,0.00,WeatherDisplay:10.37,2013-04-11 21:18:00,
2013-04-11 17:19:00,79.9,10.3,29.80,SE,145,7.7,10.8,7,0.00,CLR,,0.00,WeatherDisplay:10.37,2013-04-11 21:19:00,
2013-04-11 17:24:00,79.0,9.6,29.80,South,174,6.3,9.2,7,0.00,CLR,,0.00,WeatherDisplay:10.37,2013-04-11 21:24:00,
2013-04-11 17:29:00,79.5,6.5,29.79,East,99,3.0,7.1,6,0.00,CLR,,0.00,WeatherDisplay:10.37,2013-04-11 21:29:00,
2013-04-11 17:34:00,80.2,7.1,29.79,ESE,116,5.1,12.7,6,0.00,CLR,,0.00,WeatherDisplay:10.37,2013-04-11 21:34:00,
2013-04-11 17:39:00,80.1,10.4,29.79,WSW,258,8.5,12.7,7,0.00,CLR,,0.00,WeatherDisplay:10.37,2013-04-11 21:39:00,
2013-04-11 17:40:00,78.4,9.2,29.79,SW,230,4.4,12.7,7,0.00,CLR,,0.00,WeatherDisplay:10.37,2013-04-11 21:40:00,
2013-04-11 17:44:00,77.9,8.8,29.79,East,97,3.2,15.0,7,0.00,CLR,,0.00,WeatherDisplay:10.37,2013-04-11 21:44:00,
2013-04-11 17:45:00,79.2,12.8,29.79,East,97,0.5,6.9,8,0.00,CLR,,0.00,WeatherDisplay:10.37,2013-04-11 21:45:00,
2013-04-11 17:49:00,78.0,11.9,29.79,SSE,154,3.7,10.4,8,0.00,CLR,,0.00,WeatherDisplay:10.37,2013-04-11 21:49:00,
2013-04-11 17:50:00,77.8,11.7,29.79,ESE,104,3.8,9.2,8,0.00,CLR,,0.00,WeatherDisplay:10.37,2013-04-11 21:50:00,
2013-04-11 17:51:00,77.8,8.7,29.79,ESE,116,8.2,15.6,7,0.00,CLR,,0.00,WeatherDisplay:10.37,2013-04-11 21:51:00,
2013-04-11 17:55:00,77.2,11.3,29.79,NE,49,5.7,13.8,8,0.00,CLR,,0.00,WeatherDisplay:10.37,2013-04-11 21:55:00,
2013-04-11 17:56:00,77.5,11.5,29.79,South,189,6.8,11.5,8,0.00,CLR,,0.00,WeatherDisplay:10.37,2013-04-11 21:56:00,
2013-04-11 18:00:00,77.4,11.4,29.79,SSE,152,1.1,8.1,8,0.00,CLR,,0.00,WeatherDisplay:10.37,2013-04-11 22:00:00,
2013-04-11 18:01:00,77.7,8.6,29.79,SSE,168,10.6,13.8,7,0.00,CLR,,0.00,WeatherDisplay:10.37,2013-04-11 22:01:00,
2013-04-11 18:05:00,77.7,8.6,29.79,SSE,157,1.5,6.9,7,0.00,CLR,,0.00,WeatherDisplay:10.37,2013-04-11 22:05:00,
2013-04-11 18:06:00,77.9,8.8,29.79,SSE,157,0.2,3.5,7,0.00,CLR,,0.00,WeatherDisplay:10.37,2013-04-11 22:06:00,
2013-04-11 18:10:00,78.4,12.2,29.79,SW,215,3.6,8.1,8,0.00,CLR,,0.00,WeatherDisplay:10.37,2013-04-11 22:10:00,
2013-04-11 18:12:00,77.7,11.6,29.80,South,174,5.4,9.2,8,0.00,CLR,,0.00,WeatherDisplay:10.37,2013-04-11 22:12:00,
2013-04-11 18:15:00,77.3,11.3,29.80,SSE,164,5.0,5.0,8,0.00,CLR,,0.00,WeatherDisplay:10.37,2013-04-11 22:15:00,
2013-04-11 18:16:00,77.3,11.3,29.80,SSW,213,5.8,9.2,8,0.00,CLR,,0.00,WeatherDisplay:10.37,2013-04-11 22:16:00,
2013-04-11 18:18:00,77.3,14.0,29.80,SE,136,2.6,10.3,9,0.00,CLR,,0.00,WeatherDisplay:10.37,2013-04-11 22:18:00,
2013-04-11 18:20:00,78.3,14.8,29.80,SSE,168,3.9,13.8,9,0.00,CLR,,0.00,WeatherDisplay:10.37,2013-04-11 22:20:00,
2013-04-11 18:21:00,77.2,13.9,29.80,South,186,4.1,10.4,9,0.00,CLR,,0.00,WeatherDisplay:10.37,2013-04-11 22:21:00,
2013-04-11 18:23:00,77.4,14.1,29.80,South,176,2.3,8.1,9,0.00,CLR,,0.00,WeatherDisplay:10.37,2013-04-11 22:23:00,
2013-04-11 18:25:00,77.7,14.3,29.80,SSW,198,5.7,9.2,9,0.00,CLR,,0.00,WeatherDisplay:10.37,2013-04-11 22:25:00,
2013-04-11 18:26:00,77.7,14.3,29.80,South,189,4.1,8.1,9,0.00,CLR,,0.00,WeatherDisplay:10.37,2013-04-11 22:26:00,
2013-04-11 18:28:00,77.8,14.4,29.80,South,184,1.2,5.8,9,0.00,CLR,,0.00,WeatherDisplay:10.37,2013-04-11 22:28:00,
2013-04-11 18:30:00,77.4,16.5,29.80,South,179,5.8,8.6,10,0.00,CLR,,0.00,WeatherDisplay:10.37,2013-04-11 22:30:00,
2013-04-11 18:32:00,77.3,14.0,29.80,SE,131,4.5,8.1,9,0.00,CLR,,0.00,WeatherDisplay:10.37,2013-04-11 22:32:00,
2013-04-11 18:33:00,77.7,14.3,29.79,SE,131,0.0,3.5,9,0.00,CLR,,0.00,WeatherDisplay:10.37,2013-04-11 22:33:00,
2013-04-11 18:36:00,78.3,12.1,29.79,SSW,206,2.0,9.5,8,0.00,CLR,,0.00,WeatherDisplay:10.37,2013-04-11 22:36:00,
2013-04-11 18:37:00,77.2,11.3,29.79,SSE,167,4.9,9.3,8,0.00,CLR,,0.00,WeatherDisplay:10.37,2013-04-11 22:37:00,
2013-04-11 18:38:00,77.8,11.7,29.79,SSE,167,6.9,10.4,8,0.00,CLR,,0.00,WeatherDisplay:10.37,2013-04-11 22:38:00,
2013-04-11 18:41:00,79.4,12.9,29.79,SE,137,0.0,0.0,8,0.00,CLR,,0.00,WeatherDisplay:10.37,2013-04-11 22:41:00,
2013-04-11 18:42:00,77.4,11.4,29.79,SW,233,0.7,7.9,8,0.00,CLR,,0.00,WeatherDisplay:10.37,2013-04-11 22:42:00,
2013-04-11 18:43:00,77.9,11.8,29.79,SSE,154,2.3,8.1,8,0.00,CLR,,0.00,WeatherDisplay:10.37,2013-04-11 22:43:00,
2013-04-11 18:44:00,78.0,11.9,29.79,SSE,154,0.9,4.6,8,0.00,CLR,,0.00,WeatherDisplay:10.37,2013-04-11 22:44:00,
2013-04-11 18:47:00,77.4,14.1,29.79,WSW,253,4.8,8.1,9,0.00,CLR,,0.00,WeatherDisplay:10.37,2013-04-11 22:47:00,
2013-04-11 18:49:00,78.4,12.2,29.79,South,176,2.1,7.8,8,0.00,CLR,,0.00,WeatherDisplay:10.37,2013-04-11 22:49:00,
2013-04-11 18:52:00,77.2,16.4,29.80,ESE,104,0.8,6.9,10,0.00,CLR,,0.00,WeatherDisplay:10.37,2013-04-11 22:52:00,
2013-04-11 18:54:00,77.0,13.8,29.80,SW,219,6.8,11.5,9,0.00,CLR,,0.00,WeatherDisplay:10.37,2013-04-11 22:54:00,
2013-04-11 18:57:00,76.8,16.1,29.80,SW,222,2.4,10.4,10,0.00,CLR,,0.00,WeatherDisplay:10.37,2013-04-11 22:57:00,
2013-04-11 18:59:00,76.6,15.9,29.80,South,172,2.2,9.2,10,0.00,CLR,,0.00,WeatherDisplay:10.37,2013-04-11 22:59:00,
2013-04-11 19:00:00,77.1,16.3,29.80,South,176,2.0,5.3,10,0.00,CLR,,0.00,WeatherDisplay:10.37,2013-04-11 23:00:00,
2013-04-11 19:02:00,77.0,16.2,29.80,SSW,212,2.3,4.6,10,0.00,CLR,,0.00,WeatherDisplay:10.37,2013-04-11 23:02:00,
2013-04-11 19:04:00,76.8,16.1,29.79,WSW,237,6.8,11.5,10,0.00,CLR,,0.00,WeatherDisplay:10.37,2013-04-11 23:04:00,
2013-04-11 19:05:00,77.0,16.2,29.80,West,268,2.3,10.4,10,0.00,CLR,,0.00,WeatherDisplay:10.37,2013-04-11 23:05:00,
2013-04-11 19:07:00,76.9,16.1,29.80,SW,226,5.3,10.4,10,0.00,CLR,,0.00,WeatherDisplay:10.37,2013-04-11 23:07:00,
2013-04-11 19:08:00,76.9,16.1,29.80,SSE,151,3.9,10.4,10,0.00,CLR,,0.00,WeatherDisplay:10.37,2013-04-11 23:08:00,
2013-04-11 19:09:00,76.9,18.3,29.80,SSE,151,0.1,5.8,11,0.00,CLR,,0.00,WeatherDisplay:10.37,2013-04-11 23:09:00,
2013-04-11 19:10:00,76.7,16.0,29.80,SW,220,1.5,5.4,10,0.00,CLR,,0.00,WeatherDisplay:10.37,2013-04-11 23:10:00,
2013-04-11 19:12:00,77.0,18.4,29.79,SSE,154,4.3,9.2,11,0.00,CLR,,0.00,WeatherDisplay:10.37,2013-04-11 23:12:00,
2013-04-11 19:13:00,76.7,18.2,29.79,ESE,119,4.0,9.2,11,0.00,CLR,,0.00,WeatherDisplay:10.37,2013-04-11 23:13:00,
2013-04-11 19:14:00,76.8,18.3,29.79,East,97,0.0,4.6,11,0.00,CLR,,0.00,WeatherDisplay:10.37,2013-04-11 23:14:00,
2013-04-11 19:16:00,77.0,18.4,29.79,East,97,0.0,0.0,11,0.00,CLR,,0.00,WeatherDisplay:10.37,2013-04-11 23:16:00,
2013-04-11 19:18:00,76.8,18.3,29.79,East,97,0.0,0.0,11,0.00,CLR,,0.00,WeatherDisplay:10.37,2013-04-11 23:18:00,
2013-04-11 19:20:00,76.6,18.1,29.79,South,178,3.9,10.4,11,0.00,CLR,,0.00,WeatherDisplay:10.37,2013-04-11 23:20:00,
2013-04-11 19:21:00,76.8,20.3,29.79,South,186,2.1,5.8,12,0.00,CLR,,0.00,WeatherDisplay:10.37,2013-04-11 23:21:00,
2013-04-11 19:23:00,76.6,20.1,29.79,SSE,155,4.6,8.1,12,0.00,CLR,,0.00,WeatherDisplay:10.37,2013-04-11 23:23:00,
2013-04-11 19:25:00,76.8,20.3,29.79,SW,217,0.0,4.6,12,0.00,CLR,,0.00,WeatherDisplay:10.37,2013-04-11 23:25:00,
2013-04-11 19:28:00,76.8,20.3,29.79,SW,217,0.0,0.0,12,0.00,CLR,,0.00,WeatherDisplay:10.37,2013-04-11 23:28:00,
2013-04-11 19:30:00,76.7,20.2,29.79,SE,138,1.1,4.1,12,0.00,CLR,,0.00,WeatherDisplay:10.37,2013-04-11 23:30:00,
2013-04-11 19:31:00,76.7,22.1,29.79,SSE,161,2.5,5.8,13,0.00,CLR,,0.00,WeatherDisplay:10.37,2013-04-11 23:31:00,
2013-04-11 19:33:00,76.7,22.1,29.79,South,169,4.3,8.1,13,0.00,CLR,,0.00,WeatherDisplay:10.37,2013-04-11 23:33:00,
2013-04-11 19:35:00,76.7,22.1,29.79,South,185,3.0,9.2,13,0.00,CLR,,0.00,WeatherDisplay:10.37,2013-04-11 23:35:00,
2013-04-11 19:37:00,76.3,21.8,29.79,South,188,4.7,8.1,13,0.00,CLR,,0.00,WeatherDisplay:10.37,2013-04-11 23:37:00,
2013-04-11 19:38:00,76.7,23.9,29.79,SE,134,2.9,5.8,14,0.00,CLR,,0.00,WeatherDisplay:10.37,2013-04-11 23:38:00,
2013-04-11 19:40:00,76.7,23.9,29.80,SE,144,3.3,4.6,14,0.00,CLR,,0.00,WeatherDisplay:10.37,2013-04-11 23:40:00,
2013-04-11 19:42:00,76.5,22.0,29.80,ENE,69,0.0,6.9,13,0.00,CLR,,0.00,WeatherDisplay:10.37,2013-04-11 23:42:00,
2013-04-11 19:43:00,76.7,22.1,29.80,ENE,69,0.0,0.0,13,0.00,CLR,,0.00,WeatherDisplay:10.37,2013-04-11 23:43:00,
2013-04-11 19:45:00,76.4,23.6,29.80,SE,130,2.2,3.5,14,0.00,CLR,,0.00,WeatherDisplay:10.37,2013-04-11 23:45:00,
2013-04-11 19:48:00,75.7,24.7,29.80,SE,136,5.6,7.6,15,0.00,CLR,,0.00,WeatherDisplay:10.37,2013-04-11 23:48:00,
2013-04-11 19:49:00,75.8,23.2,29.80,WSW,253,5.1,11.5,14,0.00,CLR,,0.00,WeatherDisplay:10.37,2013-04-11 23:49:00,
2013-04-11 19:50:00,75.8,23.2,29.80,SE,134,1.1,4.6,14,0.00,CLR,,0.00,WeatherDisplay:10.37,2013-04-11 23:50:00,
2013-04-11 19:53:00,75.4,24.5,29.80,North,6,3.7,6.9,15,0.00,CLR,,0.00,WeatherDisplay:10.37,2013-04-11 23:53:00,
2013-04-11 19:54:00,75.3,24.4,29.79,SSE,154,3.1,4.6,15,0.00,CLR,,0.00,WeatherDisplay:10.37,2013-04-11 23:54:00,
2013-04-11 19:55:00,75.4,26.1,29.79,West,270,1.9,8.1,16,0.00,CLR,,0.00,WeatherDisplay:10.37,2013-04-11 23:55:00,
2013-04-11 19:58:00,76.0,25.0,29.80,SW,232,1.1,9.2,15,0.00,CLR,,0.00,WeatherDisplay:10.37,2013-04-11 23:58:00,
2013-04-11 19:59:00,75.5,24.6,29.79,SSE,151,0.7,5.0,15,0.00,CLR,,0.00,WeatherDisplay:10.37,2013-04-11 23:59:00,
2013-04-11 20:00:00,75.9,24.9,29.80,SSE,158,1.8,6.9,15,0.00,CLR,,0.00,WeatherDisplay:10.37,2013-04-12 00:00:00,
2013-04-11 20:03:00,75.9,24.9,29.79,SE,131,0.2,2.3,15,0.00,CLR,,0.00,WeatherDisplay:10.37,2013-04-12 00:03:00,
2013-04-11 20:04:00,75.5,26.1,29.79,SSE,154,3.7,8.0,16,0.00,CLR,,0.00,WeatherDisplay:10.37,2013-04-12 00:04:00,
2013-04-11 20:05:00,75.8,26.4,29.79,South,171,0.9,4.6,16,0.00,CLR,,0.00,WeatherDisplay:10.37,2013-04-12 00:05:00,
2013-04-11 20:08:00,75.6,26.2,29.79,SE,126,2.7,6.9,16,0.00,CLR,,0.00,WeatherDisplay:10.37,2013-04-12 00:08:00,
2013-04-11 20:09:00,75.6,26.2,29.79,SE,126,0.8,5.8,16,0.00,CLR,,0.00,WeatherDisplay:10.37,2013-04-12 00:09:00,
2013-04-11 20:10:00,75.6,26.2,29.79,SSE,164,3.3,6.3,16,0.00,CLR,,0.00,WeatherDisplay:10.37,2013-04-12 00:10:00,
2013-04-11 20:13:00,75.1,27.3,29.79,ENE,66,6.7,9.2,17,0.00,CLR,,0.00,WeatherDisplay:10.37,2013-04-12 00:13:00,
2013-04-11 20:14:00,75.3,27.4,29.79,East,100,2.9,8.1,17,0.00,CLR,,0.00,WeatherDisplay:10.37,2013-04-12 00:14:00,
2013-04-11 20:16:00,75.0,27.2,29.78,East,100,0.0,0.0,17,0.00,CLR,,0.00,WeatherDisplay:10.37,2013-04-12 00:16:00,
2013-04-11 20:19:00,74.9,28.5,29.78,East,100,0.0,0.0,18,0.00,CLR,,0.00,WeatherDisplay:10.37,2013-04-12 00:19:00,
2013-04-11 20:20:00,74.7,28.3,29.78,East,100,0.0,0.0,18,0.00,CLR,,0.00,WeatherDisplay:10.37,2013-04-12 00:20:00,
2013-04-11 20:21:00,74.8,28.4,29.78,SSE,152,0.0,3.5,18,0.00,CLR,,0.00,WeatherDisplay:10.37,2013-04-12 00:21:00,
2013-04-11 20:24:00,74.8,28.4,29.78,ESE,110,4.1,8.1,18,0.00,CLR,,0.00,WeatherDisplay:10.37,2013-04-12 00:24:00,
2013-04-11 20:25:00,74.8,28.4,29.78,ESE,109,1.0,6.9,18,0.00,CLR,,0.00,WeatherDisplay:10.37,2013-04-12 00:25:00,
2013-04-11 20:27:00,74.9,28.5,29.78,SE,124,2.8,6.9,18,0.00,CLR,,0.00,WeatherDisplay:10.37,2013-04-12 00:27:00,
2013-04-11 20:29:00,74.8,28.4,29.78,ESE,119,0.1,4.6,18,0.00,CLR,,0.00,WeatherDisplay:10.37,2013-04-12 00:29:00,
2013-04-11 20:30:00,74.8,28.4,29.78,SE,130,1.9,6.8,18,0.00,CLR,,0.00,WeatherDisplay:10.37,2013-04-12 00:30:00,
2013-04-11 20:33:00,74.8,28.4,29.78,East,93,0.6,4.6,18,0.00,CLR,,0.00,WeatherDisplay:10.37,2013-04-12 00:33:00,
2013-04-11 20:34:00,74.8,28.4,29.78,East,93,0.0,0.0,18,0.00,CLR,,0.00,WeatherDisplay:10.37,2013-04-12 00:34:00,
2013-04-11 20:35:00,74.7,29.7,29.78,SW,230,2.5,6.9,19,0.00,CLR,,0.00,WeatherDisplay:10.37,2013-04-12 00:35:00,
2013-04-11 20:38:00,74.8,29.8,29.78,SE,140,0.9,6.9,19,0.00,CLR,,0.00,WeatherDisplay:10.37,2013-04-12 00:38:00,
2013-04-11 20:39:00,74.7,29.7,29.78,SE,138,0.5,5.4,19,0.00,CLR,,0.00,WeatherDisplay:10.37,2013-04-12 00:39:00,
2013-04-11 20:41:00,74.7,29.7,29.78,East,100,2.8,5.8,19,0.00,CLR,,0.00,WeatherDisplay:10.37,2013-04-12 00:41:00,
2013-04-11 20:43:00,74.7,29.7,29.78,ESE,110,0.0,0.0,19,0.00,CLR,,0.00,WeatherDisplay:10.37,2013-04-12 00:43:00,
2013-04-11 20:44:00,74.7,29.7,29.78,ESE,116,3.1,6.9,19,0.00,CLR,,0.00,WeatherDisplay:10.37,2013-04-12 00:44:00,
2013-04-11 20:45:00,74.7,30.9,29.78,ESE,112,2.1,5.8,20,0.00,CLR,,0.00,WeatherDisplay:10.37,2013-04-12 00:45:00,
2013-04-11 20:47:00,74.7,29.7,29.78,East,89,4.4,6.9,19,0.00,CLR,,0.00,WeatherDisplay:10.37,2013-04-12 00:47:00,
2013-04-11 20:48:00,74.7,29.7,29.78,East,89,0.2,4.6,19,0.00,CLR,,0.00,WeatherDisplay:10.37,2013-04-12 00:48:00,
2013-04-11 20:50:00,74.7,30.9,29.79,East,89,0.0,0.0,20,0.00,CLR,,0.00,WeatherDisplay:10.37,2013-04-12 00:50:00,
2013-04-11 20:52:00,74.7,30.9,29.79,South,178,4.5,5.8,20,0.00,CLR,,0.00,WeatherDisplay:10.37,2013-04-12 00:52:00,
2013-04-11 20:53:00,74.7,30.9,29.79,South,178,2.9,6.9,20,0.00,CLR,,0.00,WeatherDisplay:10.37,2013-04-12 00:53:00,
2013-04-11 20:55:00,74.7,30.9,29.78,ESE,120,0.8,6.1,20,0.00,CLR,,0.00,WeatherDisplay:10.37,2013-04-12 00:55:00,
2013-04-11 20:58:00,74.7,32.1,29.79,ESE,114,4.4,6.9,21,0.00,CLR,,0.00,WeatherDisplay:10.37,2013-04-12 00:58:00,
2013-04-11 21:00:00,74.7,32.1,29.78,East,90,5.5,9.2,21,0.00,CLR,,0.00,WeatherDisplay:10.37,2013-04-12 01:00:00,
2013-04-11 21:03:00,74.7,33.3,29.78,South,181,5.3,8.1,22,0.00,CLR,,0.00,WeatherDisplay:10.37,2013-04-12 01:03:00,
2013-04-11 21:05:00,74.8,33.4,29.78,SE,126,2.2,5.2,22,0.00,CLR,,0.00,WeatherDisplay:10.37,2013-04-12 01:05:00,
2013-04-11 21:08:00,74.7,33.3,29.79,East,85,0.7,4.6,22,0.00,CLR,,0.00,WeatherDisplay:10.37,2013-04-12 01:08:00,
2013-04-11 21:10:00,74.4,31.9,29.78,SSE,155,3.2,5.8,21,0.00,CLR,,0.00,WeatherDisplay:10.37,2013-04-12 01:10:00,
2013-04-11 21:13:00,74.7,33.3,29.78,SSE,155,0.0,0.0,22,0.00,CLR,,0.00,WeatherDisplay:10.37,2013-04-12 01:13:00,
2013-04-11 21:14:00,74.7,33.3,29.78,SSE,155,0.0,0.0,22,0.00,CLR,,0.00,WeatherDisplay:10.37,2013-04-12 01:14:00,
2013-04-11 21:15:00,74.7,32.1,29.78,SSE,155,0.0,0.0,21,0.00,CLR,,0.00,WeatherDisplay:10.37,2013-04-12 01:15:00,
2013-04-11 21:18:00,74.7,33.3,29.78,SE,130,3.3,5.8,22,0.00,CLR,,0.00,WeatherDisplay:10.37,2013-04-12 01:18:00,
2013-04-11 21:20:00,74.6,34.3,29.78,East,82,0.0,0.0,23,0.00,CLR,,0.00,WeatherDisplay:10.37,2013-04-12 01:20:00,
2013-04-11 21:23:00,74.4,34.2,29.78,South,188,0.6,3.5,23,0.00,CLR,,0.00,WeatherDisplay:10.37,2013-04-12 01:23:00,
2013-04-11 21:25:00,74.7,35.5,29.78,NNE,16,2.8,5.8,24,0.00,CLR,,0.00,WeatherDisplay:10.37,2013-04-12 01:25:00,
2013-04-11 21:26:00,74.4,34.2,29.78,SE,126,6.0,9.2,23,0.00,CLR,,0.00,WeatherDisplay:10.37,2013-04-12 01:26:00,
2013-04-11 21:28:00,74.5,33.1,29.78,SSE,152,6.8,9.2,22,0.00,CLR,,0.00,WeatherDisplay:10.37,2013-04-12 01:28:00,
2013-04-11 21:30:00,74.6,36.4,29.78,NE,51,1.5,5.8,25,0.00,CLR,,0.00,WeatherDisplay:10.37,2013-04-12 01:30:00,
2013-04-11 21:31:00,74.6,36.4,29.78,ENE,73,5.1,8.1,25,0.00,CLR,,0.00,WeatherDisplay:10.37,2013-04-12 01:31:00,
2013-04-11 21:33:00,74.4,35.2,29.79,East,90,0.3,6.9,24,0.00,CLR,,0.00,WeatherDisplay:10.37,2013-04-12 01:33:00,
2013-04-11 21:35:00,74.6,36.4,29.79,East,90,0.0,0.0,25,0.00,CLR,,0.00,WeatherDisplay:10.37,2013-04-12 01:35:00,
2013-04-11 21:37:00,74.4,35.2,29.79,ESE,104,1.5,6.7,24,0.00,CLR,,0.00,WeatherDisplay:10.37,2013-04-12 01:37:00,
2013-04-11 21:38:00,74.6,36.4,29.79,ESE,104,0.0,4.6,25,0.00,CLR,,0.00,WeatherDisplay:10.37,2013-04-12 01:38:00,
2013-04-11 21:40:00,74.4,36.3,29.79,ENE,71,1.7,3.5,25,0.00,CLR,,0.00,WeatherDisplay:10.37,2013-04-12 01:40:00,
2013-04-11 21:42:00,74.6,36.4,29.79,ENE,71,0.2,4.6,25,0.00,CLR,,0.00,WeatherDisplay:10.37,2013-04-12 01:42:00,
2013-04-11 21:44:00,74.6,36.4,29.79,ENE,71,0.0,0.0,25,0.00,CLR,,0.00,WeatherDisplay:10.37,2013-04-12 01:44:00,
2013-04-11 21:45:00,74.5,37.3,29.79,East,99,1.2,5.0,26,0.00,CLR,,0.00,WeatherDisplay:10.37,2013-04-12 01:45:00,
2013-04-11 21:47:00,74.3,37.2,29.78,NE,37,3.3,6.9,26,0.00,CLR,,0.00,WeatherDisplay:10.37,2013-04-12 01:47:00,
2013-04-11 21:49:00,74.4,37.3,29.78,East,88,1.4,4.6,26,0.00,CLR,,0.00,WeatherDisplay:10.37,2013-04-12 01:49:00,
2013-04-11 21:50:00,74.4,35.2,29.78,South,179,5.6,6.9,24,0.00,CLR,,0.00,WeatherDisplay:10.37,2013-04-12 01:50:00,
2013-04-11 21:53:00,74.3,35.2,29.78,South,185,3.8,9.2,24,0.00,CLR,,0.00,WeatherDisplay:10.37,2013-04-12 01:53:00,
2013-04-11 21:54:00,74.6,37.4,29.78,West,277,4.0,6.9,26,0.00,CLR,,0.00,WeatherDisplay:10.37,2013-04-12 01:54:00,
2013-04-11 21:55:00,74.6,37.4,29.78,ESE,106,3.2,4.4,26,0.00,CLR,,0.00,WeatherDisplay:10.37,2013-04-12 01:55:00,
2013-04-11 21:58:00,74.6,36.4,29.78,ESE,116,1.4,5.8,25,0.00,CLR,,0.00,WeatherDisplay:10.37,2013-04-12 01:58:00,
2013-04-11 21:59:00,74.6,36.4,29.78,ESE,116,0.0,0.0,25,0.00,CLR,,0.00,WeatherDisplay:10.37,2013-04-12 01:59:00,
2013-04-11 22:00:00,74.5,37.3,29.79,ESE,116,0.0,0.0,26,0.00,CLR,,0.00,WeatherDisplay:10.37,2013-04-12 02:00:00,
2013-04-11 22:01:00,74.4,37.3,29.79,ESE,116,0.0,0.0,26,0.00,CLR,,0.00,WeatherDisplay:10.37,2013-04-12 02:01:00,
2013-04-11 22:03:00,74.6,36.4,29.78,ESE,116,0.0,0.0,25,0.00,CLR,,0.00,WeatherDisplay:10.37,2013-04-12 02:03:00,
2013-04-11 22:04:00,74.4,37.3,29.78,ESE,116,0.4,3.0,26,0.00,CLR,,0.00,WeatherDisplay:10.37,2013-04-12 02:04:00,
2013-04-11 22:05:00,74.5,37.3,29.78,ESE,116,0.7,3.5,26,0.00,CLR,,0.00,WeatherDisplay:10.37,2013-04-12 02:05:00,
2013-04-11 22:06:00,74.5,37.3,29.78,SE,145,1.3,6.1,26,0.00,CLR,,0.00,WeatherDisplay:10.37,2013-04-12 02:06:00,
2013-04-11 22:08:00,74.6,36.4,29.78,SSE,152,1.1,4.6,25,0.00,CLR,,0.00,WeatherDisplay:10.37,2013-04-12 02:08:00,
2013-04-11 22:09:00,74.6,36.4,29.78,SSE,152,0.0,0.0,25,0.00,CLR,,0.00,WeatherDisplay:10.37,2013-04-12 02:09:00,
2013-04-11 22:11:00,74.7,36.5,29.78,East,100,1.0,5.8,25,0.00,CLR,,0.00,WeatherDisplay:10.37,2013-04-12 02:11:00,
2013-04-11 22:13:00,74.4,36.3,29.78,SE,126,4.4,5.8,25,0.00,CLR,,0.00,WeatherDisplay:10.37,2013-04-12 02:13:00,
2013-04-11 22:14:00,74.5,37.3,29.78,SE,124,5.0,7.9,26,0.00,CLR,,0.00,WeatherDisplay:10.37,2013-04-12 02:14:00,
2013-04-11 22:16:00,74.1,37.0,29.78,NE,51,3.8,9.2,26,0.00,CLR,,0.00,WeatherDisplay:10.37,2013-04-12 02:16:00,
2013-04-11 22:19:00,74.7,35.5,29.78,South,185,3.0,8.1,24,0.00,CLR,,0.00,WeatherDisplay:10.37,2013-04-12 02:19:00,
2013-04-11 22:21:00,74.3,37.2,29.78,SW,215,0.0,6.9,26,0.00,CLR,,0.00,WeatherDisplay:10.37,2013-04-12 02:21:00,
2013-04-11 22:22:00,74.3,37.2,29.78,SW,215,0.0,6.9,26,0.00,CLR,,0.00,WeatherDisplay:10.37,2013-04-12 02:22:00,
2013-04-11 22:24:00,74.3,37.2,29.78,SW,215,0.0,0.0,26,0.00,CLR,,0.00,WeatherDisplay:10.37,2013-04-12 02:24:00,
2013-04-11 22:27:00,74.6,36.4,29.77,East,99,3.1,6.0,25,0.00,CLR,,0.00,WeatherDisplay:10.37,2013-04-12 02:27:00,
2013-04-11 22:29:00,74.4,35.2,29.78,ESE,113,6.5,9.2,24,0.00,CLR,,0.00,WeatherDisplay:10.37,2013-04-12 02:29:00,
2013-04-11 22:30:00,74.6,37.4,29.78,ESE,121,7.8,11.0,26,0.00,CLR,,0.00,WeatherDisplay:10.37,2013-04-12 02:30:00,
2013-04-11 22:32:00,74.5,37.3,29.78,East,96,1.7,9.2,26,0.00,CLR,,0.00,WeatherDisplay:10.37,2013-04-12 02:32:00,
2013-04-11 22:34:00,74.6,37.4,29.78,SSE,147,6.9,9.2,26,0.00,CLR,,0.00,WeatherDisplay:10.37,2013-04-12 02:34:00,
2013-04-11 22:35:00,74.6,37.4,29.78,SE,144,3.6,5.8,26,0.00,CLR,,0.00,WeatherDisplay:10.37,2013-04-12 02:35:00,
2013-04-11 22:37:00,74.6,37.4,29.78,East,86,3.4,4.9,26,0.00,CLR,,0.00,WeatherDisplay:10.37,2013-04-12 02:37:00,
2013-04-11 22:39:00,74.5,37.3,29.78,ESE,107,3.3,5.8,26,0.00,CLR,,0.00,WeatherDisplay:10.37,2013-04-12 02:39:00,
2013-04-11 22:41:00,74.4,37.3,29.78,East,99,0.9,3.5,26,0.00,CLR,,0.00,WeatherDisplay:10.37,2013-04-12 02:41:00,
2013-04-11 22:42:00,74.6,38.4,29.78,SE,136,0.0,3.5,27,0.00,CLR,,0.00,WeatherDisplay:10.37,2013-04-12 02:42:00,
2013-04-11 22:43:00,74.4,37.3,29.78,SSE,160,1.6,6.9,26,0.00,CLR,,0.00,WeatherDisplay:10.37,2013-04-12 02:43:00,
2013-04-11 22:44:00,74.7,36.5,29.77,ENE,69,8.0,11.5,25,0.00,CLR,,0.00,WeatherDisplay:10.37,2013-04-12 02:44:00,
2013-04-11 22:46:00,74.6,35.4,29.78,SE,124,7.3,9.2,24,0.00,CLR,,0.00,WeatherDisplay:10.37,2013-04-12 02:46:00,
2013-04-11 22:48:00,74.7,37.5,29.77,ESE,114,7.7,11.5,26,0.00,CLR,,0.00,WeatherDisplay:10.37,2013-04-12 02:48:00,
2013-04-11 22:49:00,74.7,36.5,29.77,ESE,120,8.0,10.4,25,0.00,CLR,,0.00,WeatherDisplay:10.37,2013-04-12 02:49:00,
2013-04-11 22:51:00,74.5,37.3,29.77,SE,134,6.2,7.2,26,0.00,CLR,,0.00,WeatherDisplay:10.37,2013-04-12 02:51:00,
2013-04-11 22:53:00,74.6,37.4,29.77,SSE,147,2.1,8.1,26,0.00,CLR,,0.00,WeatherDisplay:10.37,2013-04-12 02:53:00,
2013-04-11 22:54:00,74.5,37.3,29.77,ESE,104,4.2,9.2,26,0.00,CLR,,0.00,WeatherDisplay:10.37,2013-04-12 02:54:00,
2013-04-11 22:57:00,74.6,36.4,29.77,SE,138,2.5,5.8,25,0.00,CLR,,0.00,WeatherDisplay:10.37,2013-04-12 02:57:00,
2013-04-11 22:58:00,74.7,37.5,29.77,ESE,121,2.0,6.1,26,0.00,CLR,,0.00,WeatherDisplay:10.37,2013-04-12 02:58:00,
2013-04-11 22:59:00,74.6,36.4,29.77,SSE,158,4.5,8.8,25,0.00,CLR,,0.00,WeatherDisplay:10.37,2013-04-12 02:59:00,
2013-04-11 23:02:00,74.4,38.2,29.77,ESE,109,5.2,9.2,27,0.00,CLR,,0.00,WeatherDisplay:10.37,2013-04-12 03:02:00,
2013-04-11 23:03:00,74.3,38.1,29.77,East,96,6.1,9.4,27,0.00,CLR,,0.00,WeatherDisplay:10.37,2013-04-12 03:03:00,
2013-04-11 23:04:00,74.4,36.3,29.77,ESE,113,6.3,9.2,25,0.00,CLR,,0.00,WeatherDisplay:10.37,2013-04-12 03:04:00,
2013-04-11 23:07:00,74.5,38.3,29.77,ENE,78,6.9,10.4,27,0.00,CLR,,0.00,WeatherDisplay:10.37,2013-04-12 03:07:00,
2013-04-11 23:08:00,74.4,38.2,29.77,ESE,123,5.6,8.1,27,0.00,CLR,,0.00,WeatherDisplay:10.37,2013-04-12 03:08:00,
2013-04-11 23:09:00,74.6,37.4,29.77,ENE,71,5.4,9.2,26,0.00,CLR,,0.00,WeatherDisplay:10.37,2013-04-12 03:09:00,
2013-04-11 23:12:00,74.2,37.1,29.76,South,179,7.2,10.4,26,0.00,CLR,,0.00,WeatherDisplay:10.37,2013-04-12 03:12:00,
2013-04-11 23:13:00,74.3,38.1,29.76,East,88,2.8,10.4,27,0.00,CLR,,0.00,WeatherDisplay:10.37,2013-04-12 03:13:00,
2013-04-11 23:14:00,74.3,37.2,29.76,SE,126,3.6,7.8,26,0.00,CLR,,0.00,WeatherDisplay:10.37,2013-04-12 03:14:00,
2013-04-11 23:17:00,74.6,38.4,29.77,SE,143,5.2,6.9,27,0.00,CLR,,0.00,WeatherDisplay:10.37,2013-04-12 03:17:00,
2013-04-11 23:18:00,74.3,37.2,29.76,ESE,116,7.1,10.4,26,0.00,CLR,,0.00,WeatherDisplay:10.37,2013-04-12 03:18:00,
2013-04-11 23:19:00,74.2,35.1,29.76,SE,140,8.2,10.4,24,0.00,CLR,,0.00,WeatherDisplay:10.37,2013-04-12 03:19:00,
2013-04-11 23:20:00,74.4,35.2,29.76,East,90,7.3,10.4,24,0.00,CLR,,0.00,WeatherDisplay:10.37,2013-04-12 03:20:00,
2013-04-11 23:22:00,74.1,38.0,29.76,East,95,7.0,8.1,27,0.00,CLR,,0.00,WeatherDisplay:10.37,2013-04-12 03:22:00,
2013-04-11 23:24:00,74.2,37.1,29.76,ESE,106,0.0,3.5,26,0.00,CLR,,0.00,WeatherDisplay:10.37,2013-04-12 03:24:00,
2013-04-11 23:25:00,74.4,36.3,29.77,ENE,76,4.5,5.2,25,0.00,CLR,,0.00,WeatherDisplay:10.37,2013-04-12 03:25:00,
2013-04-11 23:27:00,74.1,38.0,29.76,SE,130,7.6,9.2,27,0.00,CLR,,0.00,WeatherDisplay:10.37,2013-04-12 03:27:00,
2013-04-11 23:29:00,74.2,37.1,29.76,SSE,155,7.1,15.0,26,0.00,CLR,,0.00,WeatherDisplay:10.37,2013-04-12 03:29:00,
2013-04-11 23:30:00,74.2,36.1,29.76,SE,131,6.2,8.1,25,0.00,CLR,,0.00,WeatherDisplay:10.37,2013-04-12 03:30:00,
2013-04-11 23:32:00,74.1,38.9,29.76,East,90,9.4,10.4,28,0.00,CLR,,0.00,WeatherDisplay:10.37,2013-04-12 03:32:00,
2013-04-11 23:34:00,74.3,37.2,29.76,SE,128,7.1,13.8,26,0.00,CLR,,0.00,WeatherDisplay:10.37,2013-04-12 03:34:00,
2013-04-11 23:35:00,74.2,38.1,29.77,ESE,112,4.8,13.8,27,0.00,CLR,,0.00,WeatherDisplay:10.37,2013-04-12 03:35:00,
2013-04-11 23:37:00,74.1,36.0,29.76,East,93,7.5,11.5,25,0.00,CLR,,0.00,WeatherDisplay:10.37,2013-04-12 03:37:00,
2013-04-11 23:39:00,74.1,38.9,29.76,ESE,102,3.9,6.9,28,0.00,CLR,,0.00,WeatherDisplay:10.37,2013-04-12 03:39:00,
2013-04-11 23:40:00,74.2,39.0,29.76,ESE,112,4.2,6.9,28,0.00,CLR,,0.00,WeatherDisplay:10.37,2013-04-12 03:40:00,
2013-04-11 23:42:00,74.0,38.8,29.76,ENE,78,4.5,7.2,28,0.00,CLR,,0.00,WeatherDisplay:10.37,2013-04-12 03:42:00,
2013-04-11 23:44:00,74.0,36.9,29.76,SSE,155,6.1,11.5,26,0.00,CLR,,0.00,WeatherDisplay:10.37,2013-04-12 03:44:00,
2013-04-11 23:45:00,74.1,38.0,29.76,ESE,110,6.6,9.2,27,0.00,CLR,,0.00,WeatherDisplay:10.37,2013-04-12 03:45:00,
2013-04-11 23:48:00,74.1,38.0,29.76,East,99,3.8,8.1,27,0.00,CLR,,0.00,WeatherDisplay:10.37,2013-04-12 03:48:00,
2013-04-11 23:49:00,74.2,37.1,29.76,ESE,121,7.0,9.5,26,0.00,CLR,,0.00,WeatherDisplay:10.37,2013-04-12 03:49:00,
2013-04-11 23:50:00,73.7,39.5,29.76,East,100,7.8,11.5,29,0.00,CLR,,0.00,WeatherDisplay:10.37,2013-04-12 03:50:00,
2013-04-11 23:52:00,74.0,40.6,29.76,East,96,5.5,11.5,30,0.00,CLR,,0.00,WeatherDisplay:10.37,2013-04-12 03:52:00,
2013-04-11 23:53:00,73.6,41.1,29.76,ENE,64,7.0,8.1,31,0.00,CLR,,0.00,WeatherDisplay:10.37,2013-04-12 03:53:00,
2013-04-11 23:54:00,73.8,40.4,29.77,SE,145,8.1,10.4,30,0.00,CLR,,0.00,WeatherDisplay:10.37,2013-04-12 03:54:00,
2013-04-11 23:55:00,73.9,38.7,29.77,South,172,7.1,11.5,28,0.00,CLR,,0.00,WeatherDisplay:10.37,2013-04-12 03:55:00,
2013-04-11 23:57:00,73.6,38.5,29.76,SE,141,6.0,8.9,28,0.00,CLR,,0.00,WeatherDisplay:10.37,2013-04-12 03:57:00,
2013-04-11 23:58:00,73.8,37.7,29.76,ESE,110,8.3,11.5,27,0.00,CLR,,0.00,WeatherDisplay:10.37,2013-04-12 03:58:00,
2013-04-11 23:59:00,73.9,39.6,29.76,SSE,148,6.6,11.5,29,0.00,CLR,,0.00,WeatherDisplay:10.37,2013-04-12 03:59:00,